Observation data for Aiken on 02/11/2018      Previous  Date  Next       Current Mesonet Observations  Soil Data  Daily Summary Page  Observations in Plain Language
KAI1 110600Z 01010KT M08/M13 A3002 RMK A01 T10811132  RH  067%=      5-min Rain = 0
KAI1 110601Z 01011KT M08/M13 A3002 RMK A01 T10811132  RH  067%=      5-min Rain = 0
KAI1 110602Z 01011KT M08/M13 A3002 RMK A01 T10811132  RH  067%=      5-min Rain = 0
KAI1 110603Z 01012KT M08/M13 A3002 RMK A01 T10821132  RH  067%=      5-min Rain = 0
KAI1 110604Z 01011KT M08/M13 A3002 RMK A01 T10821132  RH  067%=      5-min Rain = 0
KAI1 110605Z 01011KT M08/M13 A3002 RMK A01 T10821132  RH  067%=      5-min Rain = 0
KAI1 110606Z 01013KT M08/M13 A3002 RMK A01 T10821133  RH  067%=      5-min Rain = 0
KAI1 110607Z 01013KT M08/M13 A3002 RMK A01 T10821133  RH  067%=      5-min Rain = 0
KAI1 110608Z 01012KT M08/M13 A3002 RMK A01 T10821133  RH  067%=      5-min Rain = 0
KAI1 110609Z 01012KT M08/M13 A3002 RMK A01 T10821133  RH  067%=      5-min Rain = 0
KAI1 110610Z 01012KT M08/M13 A3002 RMK A01 T10821133  RH  067%=      5-min Rain = 0
KAI1 110611Z 01013KT M08/M13 A3002 RMK A01 T10831133  RH  067%=      5-min Rain = 0
KAI1 110612Z 01011KT M08/M13 A3002 RMK A01 T10831132  RH  067%=      5-min Rain = 0
KAI1 110613Z 01011KT M08/M13 A3002 RMK A01 T10831133  RH  067%=      5-min Rain = 0
KAI1 110614Z 01012KT M08/M13 A3002 RMK A01 T10831133  RH  067%=      5-min Rain = 0
KAI1 110615Z 01012KT M08/M13 A3002 RMK A01 T10831133  RH  067%=      5-min Rain = 0
KAI1 110616Z 01013KT M08/M13 A3002 RMK A01 T10831132  RH  068%=      5-min Rain = 0
KAI1 110617Z 00013KT M08/M13 A3002 RMK A01 T10831132  RH  068%=      5-min Rain = 0
KAI1 110618Z 00013KT M08/M13 A3002 RMK A01 T10831132  RH  068%=      5-min Rain = 0
KAI1 110619Z 00013KT M08/M13 A3002 RMK A01 T10831132  RH  068%=      5-min Rain = 0
KAI1 110620Z 00013KT M08/M13 A3002 RMK A01 T10841133  RH  068%=      5-min Rain = 0
KAI1 110621Z 00013KT M08/M13 A3002 RMK A01 T10841133  RH  068%=      5-min Rain = 0
KAI1 110622Z 00010KT M08/M13 A3002 RMK A01 T10841133  RH  068%=      5-min Rain = 0
KAI1 110623Z 00011KT M08/M13 A3002 RMK A01 T10841133  RH  068%=      5-min Rain = 0
KAI1 110624Z 00011KT M09/M13 A3002 RMK A01 T10851134  RH  068%=      5-min Rain = 0
KAI1 110625Z 00012KT M09/M13 A3002 RMK A01 T10851133  RH  068%=      5-min Rain = 0
KAI1 110626Z 36011KT M09/M13 A3002 RMK A01 T10851134  RH  068%=      5-min Rain = 0
KAI1 110627Z 36013KT M09/M13 A3002 RMK A01 T10851134  RH  068%=      5-min Rain = 0
KAI1 110628Z 00013KT M09/M13 A3002 RMK A01 T10851134  RH  068%=      5-min Rain = 0
KAI1 110629Z 36012KT M09/M13 A3002 RMK A01 T10851133  RH  068%=      5-min Rain = 0
KAI1 110630Z 36014KT M09/M13 A3002 RMK A01 T10851134  RH  068%=      5-min Rain = 0
KAI1 110631Z 00013KT M09/M13 A3002 RMK A01 T10851134  RH  068%=      5-min Rain = 0
KAI1 110632Z 00013KT M09/M13 A3002 RMK A01 T10851134  RH  068%=      5-min Rain = 0
KAI1 110633Z 00014KT M09/M13 A3002 RMK A01 T10851134  RH  068%=      5-min Rain = 0
KAI1 110634Z 00013KT M09/M14 A3002 RMK A01 T10851135  RH  068%=      5-min Rain = 0
KAI1 110635Z 00013KT M09/M14 A3002 RMK A01 T10851135  RH  068%=      5-min Rain = 0
KAI1 110636Z 01012KT M09/M14 A3002 RMK A01 T10851135  RH  068%=      5-min Rain = 0
KAI1 110637Z 00012KT M09/M14 A3002 RMK A01 T10861135  RH  068%=      5-min Rain = 0
KAI1 110638Z 00012KT M09/M14 A3002 RMK A01 T10861135  RH  068%=      5-min Rain = 0
KAI1 110639Z 36012KT M09/M14 A3002 RMK A01 T10861135  RH  068%=      5-min Rain = 0
KAI1 110640Z 00014KT M09/M14 A3002 RMK A01 T10861135  RH  068%=      5-min Rain = 0
KAI1 110641Z 00015KT M09/M14 A3002 RMK A01 T10861135  RH  068%=      5-min Rain = 0
KAI1 110642Z 01016KT M09/M14 A3002 RMK A01 T10861135  RH  068%=      5-min Rain = 0
KAI1 110643Z 01014KT M09/M14 A3002 RMK A01 T10861135  RH  068%=      5-min Rain = 0
KAI1 110644Z 01012KT M09/M14 A3002 RMK A01 T10861135  RH  068%=      5-min Rain = 0
KAI1 110645Z 00015KT M09/M14 A3002 RMK A01 T10861136  RH  068%=      5-min Rain = 0
KAI1 110646Z 00015KT M09/M14 A3002 RMK A01 T10861136  RH  068%=      5-min Rain = 0
KAI1 110647Z 00015KT M09/M14 A3002 RMK A01 T10871136  RH  068%=      5-min Rain = 0
KAI1 110648Z 01016KT M09/M14 A3003 RMK A01 T10871136  RH  068%=      5-min Rain = 0
KAI1 110649Z 01015KT M09/M14 A3002 RMK A01 T10871136  RH  068%=      5-min Rain = 0
KAI1 110650Z 00015KT M09/M14 A3003 RMK A01 T10871136  RH  068%=      5-min Rain = 0
KAI1 110651Z 36014KT M09/M14 A3003 RMK A01 T10881136  RH  068%=      5-min Rain = 0
KAI1 110652Z 36014KT M09/M14 A3003 RMK A01 T10881136  RH  068%=      5-min Rain = 0
KAI1 110653Z 00016KT M09/M14 A3003 RMK A01 T10881136  RH  068%=      5-min Rain = 0
KAI1 110654Z 00015KT M09/M14 A3002 RMK A01 T10881136  RH  068%=      5-min Rain = 0
KAI1 110655Z 00015KT M09/M14 A3002 RMK A01 T10881136  RH  068%=      5-min Rain = 0
KAI1 110656Z 00014KT M09/M14 A3002 RMK A01 T10881136  RH  068%=      5-min Rain = 0
KAI1 110657Z 00014KT M09/M14 A3002 RMK A01 T10881137  RH  068%=      5-min Rain = 0
KAI1 110658Z 00015KT M09/M14 A3002 RMK A01 T10881137  RH  068%=      5-min Rain = 0
KAI1 110659Z 00016KT M09/M14 A3003 RMK A01 T10891137  RH  068%=      5-min Rain = 0
KAI1 110700Z 01014KT M09/M14 A3003 RMK A01 T10891137  RH  068%=      5-min Rain = 0
KAI1 110701Z 00015KT M09/M14 A3003 RMK A01 T10891137  RH  068%=      5-min Rain = 0
KAI1 110702Z 00016KT M09/M14 A3003 RMK A01 T10891137  RH  068%=      5-min Rain = 0
KAI1 110703Z 00015KT M09/M14 A3002 RMK A01 T10891137  RH  068%=      5-min Rain = 0
KAI1 110704Z 01015KT M09/M14 A3002 RMK A01 T10891137  RH  068%=      5-min Rain = 0
KAI1 110705Z 00013KT M09/M14 A3002 RMK A01 T10891137  RH  068%=      5-min Rain = 0
KAI1 110706Z 00016KT M09/M14 A3002 RMK A01 T10891138  RH  068%=      5-min Rain = 0
KAI1 110707Z 01013KT M09/M14 A3002 RMK A01 T10891137  RH  068%=      5-min Rain = 0
KAI1 110708Z 01016KT M09/M14 A3002 RMK A01 T10901138  RH  068%=      5-min Rain = 0
KAI1 110709Z 00018KT M09/M14 A3002 RMK A01 T10901138  RH  068%=      5-min Rain = 0
KAI1 110710Z 01015KT M09/M14 A3002 RMK A01 T10901138  RH  068%=      5-min Rain = 0
KAI1 110711Z 01016KT M09/M14 A3002 RMK A01 T10901138  RH  068%=      5-min Rain = 0
KAI1 110712Z 01015KT M09/M14 A3002 RMK A01 T10911139  RH  068%=      5-min Rain = 0
KAI1 110713Z 01016KT M09/M14 A3002 RMK A01 T10901138  RH  068%=      5-min Rain = 0
KAI1 110714Z 01015KT M09/M14 A3002 RMK A01 T10911139  RH  068%=      5-min Rain = 0
KAI1 110715Z 01015G20KT M09/M14 A3003 RMK A01 T10911139  RH  068%=      5-min Rain = 0
KAI1 110716Z 01014KT M09/M14 A3002 RMK A01 T10911139  RH  068%=      5-min Rain = 0
KAI1 110717Z 01016KT M09/M14 A3002 RMK A01 T10911139  RH  068%=      5-min Rain = 0
KAI1 110718Z 01017KT M09/M14 A3002 RMK A01 T10911139  RH  068%=      5-min Rain = 0
KAI1 110719Z 00018KT M09/M14 A3002 RMK A01 T10911139  RH  068%=      5-min Rain = 0
KAI1 110720Z 01016KT M09/M14 A3003 RMK A01 T10911138  RH  069%=      5-min Rain = 0
KAI1 110721Z 00015KT M09/M14 A3003 RMK A01 T10911139  RH  068%=      5-min Rain = 0
KAI1 110722Z 01013KT M09/M14 A3003 RMK A01 T10921139  RH  068%=      5-min Rain = 0
KAI1 110723Z 00012G17KT M09/M14 A3003 RMK A01 T10921139  RH  068%=      5-min Rain = 0
KAI1 110724Z 01015KT M09/M14 A3003 RMK A01 T10921139  RH  068%=      5-min Rain = 0
KAI1 110725Z 00014KT M09/M14 A3003 RMK A01 T10921139  RH  068%=      5-min Rain = 0
KAI1 110726Z 01014KT M09/M14 A3003 RMK A01 T10921140  RH  068%=      5-min Rain = 0
KAI1 110727Z 01015KT M09/M14 A3003 RMK A01 T10921139  RH  069%=      5-min Rain = 0
KAI1 110728Z 01015KT M09/M14 A3003 RMK A01 T10921139  RH  069%=      5-min Rain = 0
KAI1 110729Z 00014KT M09/M14 A3003 RMK A01 T10931139  RH  069%=      5-min Rain = 0
KAI1 110730Z 01014KT M09/M14 A3003 RMK A01 T10931139  RH  069%=      5-min Rain = 0
KAI1 110731Z 01012KT M09/M14 A3003 RMK A01 T10931140  RH  069%=      5-min Rain = 0
KAI1 110732Z 01014KT M09/M14 A3003 RMK A01 T10931140  RH  069%=      5-min Rain = 0
KAI1 110733Z 01015KT M09/M14 A3003 RMK A01 T10931140  RH  069%=      5-min Rain = 0
KAI1 110734Z 01013KT M09/M14 A3003 RMK A01 T10931140  RH  069%=      5-min Rain = 0
KAI1 110735Z 01017KT M09/M14 A3003 RMK A01 T10931140  RH  069%=      5-min Rain = 0
KAI1 110736Z 02015KT M09/M14 A3003 RMK A01 T10931140  RH  069%=      5-min Rain = 0
KAI1 110737Z 01016KT M09/M14 A3003 RMK A01 T10931140  RH  069%=      5-min Rain = 0
KAI1 110738Z 01016KT M09/M14 A3003 RMK A01 T10941140  RH  069%=      5-min Rain = 0
KAI1 110739Z 01015KT M09/M14 A3003 RMK A01 T10941140  RH  069%=      5-min Rain = 0
KAI1 110740Z 01013KT M09/M14 A3003 RMK A01 T10941139  RH  069%=      5-min Rain = 0
KAI1 110741Z 01014KT M09/M14 A3003 RMK A01 T10941140  RH  069%=      5-min Rain = 0
KAI1 110742Z 01015KT M09/M14 A3003 RMK A01 T10941140  RH  069%=      5-min Rain = 0
KAI1 110743Z 01014KT M09/M14 A3003 RMK A01 T10941140  RH  069%=      5-min Rain = 0
KAI1 110744Z 01013KT M09/M14 A3003 RMK A01 T10941140  RH  069%=      5-min Rain = 0
KAI1 110745Z 01014KT M09/M14 A3003 RMK A01 T10941140  RH  069%=      5-min Rain = 0
KAI1 110746Z 01012KT M09/M14 A3003 RMK A01 T10941140  RH  069%=      5-min Rain = 0
KAI1 110747Z 01012KT M09/M14 A3003 RMK A01 T10941140  RH  069%=      5-min Rain = 0
KAI1 110748Z 01012KT M09/M14 A3003 RMK A01 T10941140  RH  069%=      5-min Rain = 0
KAI1 110749Z 01012KT M10/M14 A3003 RMK A01 T10951141  RH  069%=      5-min Rain = 0
KAI1 110750Z 01012KT M09/M14 A3003 RMK A01 T10941140  RH  069%=      5-min Rain = 0
KAI1 110751Z 01012KT M09/M14 A3003 RMK A01 T10941140  RH  069%=      5-min Rain = 0
KAI1 110752Z 01010KT M10/M14 A3003 RMK A01 T10951140  RH  069%=      5-min Rain = 0
KAI1 110753Z 01011KT M10/M14 A3003 RMK A01 T10951141  RH  069%=      5-min Rain = 0
KAI1 110754Z 01014KT M09/M14 A3003 RMK A01 T10941140  RH  069%=      5-min Rain = 0
KAI1 110755Z 01014KT M10/M14 A3004 RMK A01 T10951140  RH  069%=      5-min Rain = 0
KAI1 110756Z 00013KT M10/M14 A3004 RMK A01 T10951140  RH  069%=      5-min Rain = 0
KAI1 110757Z 01013KT M09/M14 A3003 RMK A01 T10941140  RH  069%=      5-min Rain = 0
KAI1 110758Z 01014KT M09/M14 A3003 RMK A01 T10941140  RH  069%=      5-min Rain = 0
KAI1 110759Z 01014KT M10/M14 A3004 RMK A01 T10951140  RH  069%=      5-min Rain = 0
KAI1 110800Z 01014KT M10/M14 A3004 RMK A01 T10951140  RH  069%=      5-min Rain = 0
KAI1 110801Z 00011KT M09/M14 A3004 RMK A01 T10941140  RH  069%=      5-min Rain = 0
KAI1 110802Z 00012KT M09/M14 A3004 RMK A01 T10941140  RH  069%=      5-min Rain = 0
KAI1 110803Z 00013KT M09/M14 A3004 RMK A01 T10941140  RH  069%=      5-min Rain = 0
KAI1 110804Z 01012KT M09/M14 A3004 RMK A01 T10941140  RH  069%=      5-min Rain = 0
KAI1 110805Z 01013KT M09/M14 A3004 RMK A01 T10941140  RH  069%=      5-min Rain = 0
KAI1 110806Z 00012KT M09/M14 A3004 RMK A01 T10941140  RH  069%=      5-min Rain = 0
KAI1 110807Z 00013KT M09/M14 A3004 RMK A01 T10941140  RH  069%=      5-min Rain = 0
KAI1 110808Z 00012KT M09/M14 A3004 RMK A01 T10941140  RH  069%=      5-min Rain = 0
KAI1 110809Z 01012KT M09/M14 A3004 RMK A01 T10941140  RH  069%=      5-min Rain = 0
KAI1 110810Z 00013KT M09/M14 A3004 RMK A01 T10941140  RH  069%=      5-min Rain = 0
KAI1 110811Z 00013KT M09/M14 A3004 RMK A01 T10941140  RH  069%=      5-min Rain = 0
KAI1 110812Z 01012KT M09/M14 A3004 RMK A01 T10941140  RH  069%=      5-min Rain = 0
KAI1 110813Z 00011KT M09/M14 A3004 RMK A01 T10941140  RH  069%=      5-min Rain = 0
KAI1 110814Z 00012KT M09/M14 A3004 RMK A01 T10941140  RH  069%=      5-min Rain = 0
KAI1 110815Z 00011KT M09/M14 A3005 RMK A01 T10941140  RH  069%=      5-min Rain = 0
KAI1 110816Z 35009KT M09/M14 A3005 RMK A01 T10931140  RH  069%=      5-min Rain = 0
KAI1 110817Z 36012KT M09/M14 A3005 RMK A01 T10931140  RH  069%=      5-min Rain = 0
KAI1 110818Z 00012KT M09/M14 A3005 RMK A01 T10931140  RH  069%=      5-min Rain = 0
KAI1 110819Z 00012KT M09/M14 A3005 RMK A01 T10931140  RH  069%=      5-min Rain = 0
KAI1 110820Z 00013KT M09/M14 A3005 RMK A01 T10931140  RH  069%=      5-min Rain = 0
KAI1 110821Z 01012KT M09/M14 A3005 RMK A01 T10931140  RH  069%=      5-min Rain = 0
KAI1 110822Z 00011KT M09/M14 A3005 RMK A01 T10931140  RH  069%=      5-min Rain = 0
KAI1 110823Z 00011KT M09/M14 A3005 RMK A01 T10931140  RH  069%=      5-min Rain = 0
KAI1 110824Z 00012KT M09/M14 A3005 RMK A01 T10941141  RH  069%=      5-min Rain = 0
KAI1 110825Z 00012KT M09/M14 A3005 RMK A01 T10941141  RH  069%=      5-min Rain = 0
KAI1 110826Z 00011KT M09/M14 A3005 RMK A01 T10941141  RH  069%=      5-min Rain = 0
KAI1 110827Z 36011KT M09/M14 A3005 RMK A01 T10941141  RH  069%=      5-min Rain = 0
KAI1 110828Z 00010KT M09/M14 A3005 RMK A01 T10941141  RH  069%=      5-min Rain = 0
KAI1 110829Z 00013KT M09/M14 A3005 RMK A01 T10941141  RH  068%=      5-min Rain = 0
KAI1 110830Z 00012KT M09/M14 A3005 RMK A01 T10941141  RH  069%=      5-min Rain = 0
KAI1 110831Z 36012KT M09/M14 A3005 RMK A01 T10941141  RH  069%=      5-min Rain = 0
KAI1 110832Z 36012KT M09/M14 A3005 RMK A01 T10941141  RH  069%=      5-min Rain = 0
KAI1 110833Z 00012KT M09/M14 A3005 RMK A01 T10941141  RH  069%=      5-min Rain = 0
KAI1 110834Z 00012KT M09/M14 A3005 RMK A01 T10941141  RH  069%=      5-min Rain = 0
KAI1 110835Z 00012KT M09/M14 A3005 RMK A01 T10941141  RH  069%=      5-min Rain = 0
KAI1 110836Z 00013KT M10/M14 A3005 RMK A01 T10951141  RH  069%=      5-min Rain = 0
KAI1 110837Z 01011KT M10/M14 A3005 RMK A01 T10951141  RH  069%=      5-min Rain = 0
KAI1 110838Z 00011KT M10/M14 A3005 RMK A01 T10951141  RH  069%=      5-min Rain = 0
KAI1 110839Z 01011KT M10/M14 A3005 RMK A01 T10951142  RH  069%=      5-min Rain = 0
KAI1 110840Z 01012KT M10/M14 A3005 RMK A01 T10951142  RH  069%=      5-min Rain = 0
KAI1 110841Z 00012KT M10/M14 A3005 RMK A01 T10951142  RH  069%=      5-min Rain = 0
KAI1 110842Z 00011KT M10/M14 A3005 RMK A01 T10951142  RH  069%=      5-min Rain = 0
KAI1 110843Z 00012KT M10/M14 A3005 RMK A01 T10961142  RH  069%=      5-min Rain = 0
KAI1 110844Z 00013KT M10/M14 A3005 RMK A01 T10951142  RH  069%=      5-min Rain = 0
KAI1 110845Z 01011KT M10/M14 A3005 RMK A01 T10951142  RH  069%=      5-min Rain = 0
KAI1 110846Z 01011KT M10/M14 A3005 RMK A01 T10961142  RH  069%=      5-min Rain = 0
KAI1 110847Z 00013KT M10/M14 A3005 RMK A01 T10961143  RH  069%=      5-min Rain = 0
KAI1 110848Z 01012KT M10/M14 A3005 RMK A01 T10961142  RH  069%=      5-min Rain = 0
KAI1 110849Z 01011KT M10/M14 A3005 RMK A01 T10961142  RH  069%=      5-min Rain = 0
KAI1 110850Z 00011KT M10/M14 A3006 RMK A01 T10961142  RH  069%=      5-min Rain = 0
KAI1 110851Z 00010KT M10/M14 A3006 RMK A01 T10961142  RH  069%=      5-min Rain = 0
KAI1 110852Z 00011KT M10/M14 A3006 RMK A01 T10961143  RH  069%=      5-min Rain = 0
KAI1 110853Z 00009KT M10/M14 A3006 RMK A01 T10961143  RH  069%=      5-min Rain = 0
KAI1 110854Z 00011KT M10/M14 A3006 RMK A01 T10971143  RH  069%=      5-min Rain = 0
KAI1 110855Z 36011KT M10/M14 A3006 RMK A01 T10971143  RH  069%=      5-min Rain = 0
KAI1 110856Z 00011KT M10/M14 A3006 RMK A01 T10971143  RH  069%=      5-min Rain = 0
KAI1 110857Z 00011KT M10/M14 A3006 RMK A01 T10971143  RH  069%=      5-min Rain = 0
KAI1 110858Z 00010KT M10/M14 A3006 RMK A01 T10971143  RH  069%=      5-min Rain = 0
KAI1 110859Z 00010KT M10/M14 A3006 RMK A01 T10971143  RH  069%=      5-min Rain = 0
KAI1 110900Z 00012KT M10/M14 A3006 RMK A01 T10971143  RH  069%=      5-min Rain = 0
KAI1 110901Z 00011KT M10/M14 A3006 RMK A01 T10971143  RH  069%=      5-min Rain = 0
KAI1 110902Z 00010KT M10/M14 A3006 RMK A01 T10971142  RH  069%=      5-min Rain = 0
KAI1 110903Z 00010KT M10/M14 A3006 RMK A01 T10971143  RH  069%=      5-min Rain = 0
KAI1 110904Z 00010KT M10/M14 A3006 RMK A01 T10971143  RH  069%=      5-min Rain = 0
KAI1 110905Z 36010KT M10/M14 A3006 RMK A01 T10971143  RH  069%=      5-min Rain = 0
KAI1 110906Z 00010KT M10/M14 A3006 RMK A01 T10971143  RH  069%=      5-min Rain = 0
KAI1 110907Z 00011KT M10/M14 A3006 RMK A01 T10971143  RH  069%=      5-min Rain = 0
KAI1 110908Z 36010KT M10/M14 A3006 RMK A01 T10971143  RH  069%=      5-min Rain = 0
KAI1 110909Z 00010KT M10/M14 A3006 RMK A01 T10971143  RH  069%=      5-min Rain = 0
KAI1 110910Z 36010KT M10/M14 A3006 RMK A01 T10971143  RH  069%=      5-min Rain = 0
KAI1 110911Z 00010KT M10/M14 A3006 RMK A01 T10971143  RH  069%=      5-min Rain = 0
KAI1 110912Z 00010KT M10/M14 A3006 RMK A01 T10971143  RH  069%=      5-min Rain = 0
KAI1 110913Z 00009KT M10/M14 A3006 RMK A01 T10981143  RH  069%=      5-min Rain = 0
KAI1 110914Z 00010KT M10/M14 A3006 RMK A01 T10981143  RH  069%=      5-min Rain = 0
KAI1 110915Z 00010KT M10/M14 A3006 RMK A01 T10981143  RH  069%=      5-min Rain = 0
KAI1 110916Z 36011KT M10/M14 A3006 RMK A01 T10981143  RH  069%=      5-min Rain = 0
KAI1 110917Z 00010KT M10/M14 A3006 RMK A01 T10981144  RH  069%=      5-min Rain = 0
KAI1 110918Z 36011KT M10/M14 A3006 RMK A01 T10981144  RH  069%=      5-min Rain = 0
KAI1 110919Z 00010KT M10/M14 A3006 RMK A01 T10981143  RH  070%=      5-min Rain = 0
KAI1 110920Z 36010KT M10/M14 A3006 RMK A01 T10981143  RH  070%=      5-min Rain = 0
KAI1 110921Z 00010KT M10/M14 A3006 RMK A01 T10981144  RH  069%=      5-min Rain = 0
KAI1 110922Z 00009KT M10/M14 A3006 RMK A01 T10981143  RH  069%=      5-min Rain = 0
KAI1 110923Z 35010KT M10/M14 A3006 RMK A01 T10991144  RH  069%=      5-min Rain = 0
KAI1 110924Z 36010KT M10/M14 A3006 RMK A01 T10991144  RH  070%=      5-min Rain = 0
KAI1 110925Z 36010KT M10/M14 A3006 RMK A01 T10991143  RH  070%=      5-min Rain = 0
KAI1 110926Z 36011KT M10/M14 A3006 RMK A01 T10991143  RH  070%=      5-min Rain = 0
KAI1 110927Z 00010KT M10/M14 A3006 RMK A01 T10991144  RH  070%=      5-min Rain = 0
KAI1 110928Z 00011KT M10/M14 A3005 RMK A01 T10991144  RH  070%=      5-min Rain = 0
KAI1 110929Z 36010KT M10/M14 A3005 RMK A01 T10991144  RH  070%=      5-min Rain = 0
KAI1 110930Z 00011KT M10/M14 A3005 RMK A01 T10991144  RH  070%=      5-min Rain = 0
KAI1 110931Z 00011KT M10/M14 A3005 RMK A01 T10991144  RH  070%=      5-min Rain = 0
KAI1 110932Z 00011KT M10/M14 A3005 RMK A01 T10991143  RH  070%=      5-min Rain = 0
KAI1 110933Z 00011KT M10/M14 A3005 RMK A01 T10991144  RH  070%=      5-min Rain = 0
KAI1 110934Z 36011KT M10/M14 A3005 RMK A01 T10991144  RH  070%=      5-min Rain = 0
KAI1 110935Z 00010KT M10/M14 A3005 RMK A01 T10991143  RH  070%=      5-min Rain = 0
KAI1 110936Z 00011KT M10/M14 A3005 RMK A01 T10991144  RH  070%=      5-min Rain = 0
KAI1 110937Z 00011KT M10/M14 A3005 RMK A01 T10991144  RH  070%=      5-min Rain = 0
KAI1 110938Z 00009KT M10/M14 A3005 RMK A01 T10991144  RH  070%=      5-min Rain = 0
KAI1 110939Z 00009KT M10/M14 A3005 RMK A01 T11001144  RH  070%=      5-min Rain = 0
KAI1 110940Z 00009KT M10/M15 A3005 RMK A01 T11001145  RH  070%=      5-min Rain = 0
KAI1 110941Z 00009KT M10/M15 A3005 RMK A01 T11001145  RH  070%=      5-min Rain = 0
KAI1 110942Z 00009KT M10/M14 A3005 RMK A01 T11001144  RH  070%=      5-min Rain = 0
KAI1 110943Z 36009KT M10/M14 A3005 RMK A01 T11001144  RH  070%=      5-min Rain = 0
KAI1 110944Z 00009KT M10/M14 A3006 RMK A01 T11001144  RH  070%=      5-min Rain = 0
KAI1 110945Z 00008KT M10/M14 A3006 RMK A01 T11001144  RH  070%=      5-min Rain = 0
KAI1 110946Z 00009KT M10/M14 A3006 RMK A01 T11001144  RH  070%=      5-min Rain = 0
KAI1 110947Z 00010KT M10/M14 A3005 RMK A01 T11001144  RH  070%=      5-min Rain = 0
KAI1 110948Z 36009KT M10/M14 A3006 RMK A01 T11001143  RH  070%=      5-min Rain = 0
KAI1 110949Z 36010KT M10/M14 A3006 RMK A01 T11001144  RH  070%=      5-min Rain = 0
KAI1 110950Z 36010KT M10/M14 A3006 RMK A01 T11001144  RH  070%=      5-min Rain = 0
KAI1 110951Z 00011KT M10/M14 A3005 RMK A01 T11001143  RH  071%=      5-min Rain = 0
KAI1 110952Z 00010KT M10/M14 A3006 RMK A01 T11001143  RH  071%=      5-min Rain = 0
KAI1 110953Z 00009KT M10/M14 A3006 RMK A01 T11001143  RH  071%=      5-min Rain = 0
KAI1 110954Z 01009KT M10/M14 A3006 RMK A01 T11001143  RH  071%=      5-min Rain = 0
KAI1 110955Z 01010KT M10/M14 A3006 RMK A01 T11001143  RH  071%=      5-min Rain = 0
KAI1 110956Z 00010KT M10/M14 A3006 RMK A01 T11001143  RH  071%=      5-min Rain = 0
KAI1 110957Z 00011KT M10/M14 A3006 RMK A01 T11001143  RH  071%=      5-min Rain = 0
KAI1 110958Z 00011KT M10/M14 A3006 RMK A01 T11001143  RH  071%=      5-min Rain = 0
KAI1 110959Z 00012KT M10/M14 A3006 RMK A01 T11001142  RH  071%=      5-min Rain = 0
KAI1 111000Z 00011KT M10/M14 A3006 RMK A01 T11001142  RH  071%=      5-min Rain = 0
KAI1 111001Z 00011KT M10/M14 A3006 RMK A01 T10991143  RH  071%=      5-min Rain = 0
KAI1 111002Z 36011KT M10/M14 A3006 RMK A01 T11001143  RH  071%=      5-min Rain = 0
KAI1 111003Z 36012KT M10/M14 A3006 RMK A01 T11001143  RH  071%=      5-min Rain = 0
KAI1 111004Z 00012KT M10/M14 A3006 RMK A01 T10991142  RH  071%=      5-min Rain = 0
KAI1 111005Z 36011KT M10/M14 A3006 RMK A01 T11001142  RH  071%=      5-min Rain = 0
KAI1 111006Z 00010KT M10/M14 A3006 RMK A01 T11001143  RH  071%=      5-min Rain = 0
KAI1 111007Z 00011KT M10/M14 A3006 RMK A01 T11001143  RH  071%=      5-min Rain = 0
KAI1 111008Z 00010KT M10/M14 A3006 RMK A01 T10991142  RH  071%=      5-min Rain = 0
KAI1 111009Z 36010KT M10/M14 A3006 RMK A01 T11001143  RH  071%=      5-min Rain = 0
KAI1 111010Z 36011KT M10/M14 A3006 RMK A01 T11001143  RH  071%=      5-min Rain = 0
KAI1 111011Z 00011KT M10/M14 A3006 RMK A01 T11001142  RH  071%=      5-min Rain = 0
KAI1 111012Z 36011KT M10/M14 A3006 RMK A01 T11001142  RH  071%=      5-min Rain = 0
KAI1 111013Z 35010KT M10/M14 A3006 RMK A01 T11001143  RH  071%=      5-min Rain = 0
KAI1 111014Z 36012KT M10/M14 A3006 RMK A01 T11001142  RH  071%=      5-min Rain = 0
KAI1 111015Z 36011KT M10/M14 A3006 RMK A01 T10991142  RH  071%=      5-min Rain = 0
KAI1 111016Z 36011KT M10/M14 A3006 RMK A01 T11001142  RH  071%=      5-min Rain = 0
KAI1 111017Z 36012KT M10/M14 A3006 RMK A01 T11001143  RH  071%=      5-min Rain = 0
KAI1 111018Z 00012KT M10/M14 A3006 RMK A01 T11001142  RH  071%=      5-min Rain = 0
KAI1 111019Z 36011KT M10/M14 A3006 RMK A01 T11001142  RH  071%=      5-min Rain = 0
KAI1 111020Z 36011KT M10/M14 A3006 RMK A01 T11001143  RH  071%=      5-min Rain = 0
KAI1 111021Z 00011KT M10/M14 A3006 RMK A01 T11001142  RH  071%=      5-min Rain = 0
KAI1 111022Z 36011KT M10/M14 A3006 RMK A01 T11001142  RH  071%=      5-min Rain = 0
KAI1 111023Z 00010KT M10/M14 A3006 RMK A01 T11001142  RH  071%=      5-min Rain = 0
KAI1 111024Z 00010KT M10/M14 A3006 RMK A01 T11001142  RH  071%=      5-min Rain = 0
KAI1 111025Z 36010KT M10/M14 A3006 RMK A01 T11001142  RH  071%=      5-min Rain = 0
KAI1 111026Z 36009KT M10/M14 A3006 RMK A01 T10991142  RH  071%=      5-min Rain = 0
KAI1 111027Z 36010KT M10/M14 A3007 RMK A01 T11001142  RH  071%=      5-min Rain = 0
KAI1 111028Z 36009KT M10/M14 A3007 RMK A01 T11001142  RH  071%=      5-min Rain = 0
KAI1 111029Z 36009KT M10/M14 A3007 RMK A01 T10991142  RH  071%=      5-min Rain = 0
KAI1 111030Z 36010KT M10/M14 A3007 RMK A01 T11001142  RH  071%=      5-min Rain = 0
KAI1 111031Z 36011KT M10/M14 A3007 RMK A01 T11001142  RH  071%=      5-min Rain = 0
KAI1 111032Z 00011KT M10/M14 A3007 RMK A01 T11001142  RH  071%=      5-min Rain = 0
KAI1 111033Z 36011KT M10/M14 A3007 RMK A01 T11001142  RH  071%=      5-min Rain = 0
KAI1 111034Z 36010KT M10/M14 A3007 RMK A01 T11001142  RH  071%=      5-min Rain = 0
KAI1 111035Z 36011KT M10/M14 A3007 RMK A01 T11001142  RH  071%=      5-min Rain = 0
KAI1 111036Z 36010KT M10/M14 A3007 RMK A01 T11001142  RH  071%=      5-min Rain = 0
KAI1 111037Z 36010KT M10/M14 A3007 RMK A01 T11001142  RH  071%=      5-min Rain = 0
KAI1 111038Z 36010KT M10/M14 A3007 RMK A01 T11001142  RH  071%=      5-min Rain = 0
KAI1 111039Z 36011KT M10/M14 A3007 RMK A01 T10991142  RH  071%=      5-min Rain = 0
KAI1 111040Z 35009KT M10/M14 A3007 RMK A01 T11001142  RH  071%=      5-min Rain = 0
KAI1 111041Z 36010KT M10/M14 A3007 RMK A01 T11001142  RH  071%=      5-min Rain = 0
KAI1 111042Z 36010KT M10/M14 A3007 RMK A01 T10991142  RH  071%=      5-min Rain = 0
KAI1 111043Z 35010KT M10/M14 A3007 RMK A01 T11001142  RH  071%=      5-min Rain = 0
KAI1 111044Z 36009KT M10/M14 A3007 RMK A01 T11001142  RH  071%=      5-min Rain = 0
KAI1 111045Z 36009KT M10/M14 A3007 RMK A01 T11001142  RH  071%=      5-min Rain = 0
KAI1 111046Z 35010KT M10/M14 A3007 RMK A01 T10991141  RH  071%=      5-min Rain = 0
KAI1 111047Z 35010KT M10/M14 A3007 RMK A01 T11001142  RH  071%=      5-min Rain = 0
KAI1 111048Z 35009KT M10/M14 A3007 RMK A01 T11001142  RH  071%=      5-min Rain = 0
KAI1 111049Z 36009KT M10/M14 A3007 RMK A01 T10991142  RH  071%=      5-min Rain = 0
KAI1 111050Z 36009KT M10/M14 A3007 RMK A01 T11001142  RH  071%=      5-min Rain = 0
KAI1 111051Z 36009KT M10/M14 A3007 RMK A01 T11001142  RH  071%=      5-min Rain = 0
KAI1 111052Z 36008KT M10/M14 A3007 RMK A01 T10991142  RH  071%=      5-min Rain = 0
KAI1 111053Z 36009KT M10/M14 A3007 RMK A01 T11001142  RH  071%=      5-min Rain = 0
KAI1 111054Z 36009KT M10/M14 A3007 RMK A01 T11001142  RH  071%=      5-min Rain = 0
KAI1 111055Z 36010KT M10/M14 A3007 RMK A01 T11001142  RH  071%=      5-min Rain = 0
KAI1 111056Z 36011KT M10/M14 A3007 RMK A01 T11001142  RH  071%=      5-min Rain = 0
KAI1 111057Z 36011KT M10/M14 A3007 RMK A01 T11001142  RH  071%=      5-min Rain = 0
KAI1 111058Z 36010KT M10/M14 A3007 RMK A01 T11001142  RH  071%=      5-min Rain = 0
KAI1 111059Z 35010KT M10/M14 A3007 RMK A01 T10991141  RH  071%=      5-min Rain = 0
KAI1 111100Z 35010KT M10/M14 A3007 RMK A01 T10991141  RH  071%=      5-min Rain = 0
KAI1 111101Z 35009KT M10/M14 A3007 RMK A01 T10991141  RH  071%=      5-min Rain = 0
KAI1 111102Z 35009KT M10/M14 A3007 RMK A01 T10991141  RH  071%=      5-min Rain = 0
KAI1 111103Z 35009KT M10/M14 A3008 RMK A01 T10991141  RH  071%=      5-min Rain = 0
KAI1 111104Z 35009KT M10/M14 A3008 RMK A01 T10991141  RH  071%=      5-min Rain = 0
KAI1 111105Z 35009KT M10/M14 A3008 RMK A01 T10991141  RH  071%=      5-min Rain = 0
KAI1 111106Z 35008KT M10/M14 A3008 RMK A01 T10991141  RH  071%=      5-min Rain = 0
KAI1 111107Z 35009KT M10/M14 A3008 RMK A01 T10991141  RH  071%=      5-min Rain = 0
KAI1 111108Z 35008KT M10/M14 A3008 RMK A01 T10991141  RH  071%=      5-min Rain = 0
KAI1 111109Z 35010KT M10/M14 A3008 RMK A01 T10991141  RH  071%=      5-min Rain = 0
KAI1 111110Z 35010KT M10/M14 A3008 RMK A01 T10991141  RH  071%=      5-min Rain = 0
KAI1 111111Z 35011KT M10/M14 A3008 RMK A01 T10991140  RH  071%=      5-min Rain = 0
KAI1 111112Z 35010KT M10/M14 A3008 RMK A01 T10981140  RH  071%=      5-min Rain = 0
KAI1 111113Z 34009KT M10/M14 A3008 RMK A01 T10981140  RH  071%=      5-min Rain = 0
KAI1 111114Z 35009KT M10/M14 A3008 RMK A01 T10981140  RH  071%=      5-min Rain = 0
KAI1 111115Z 35010KT M10/M14 A3008 RMK A01 T10981140  RH  071%=      5-min Rain = 0
KAI1 111116Z 35008KT M10/M14 A3008 RMK A01 T10981140  RH  071%=      5-min Rain = 0
KAI1 111117Z 35009KT M10/M14 A3008 RMK A01 T10981140  RH  071%=      5-min Rain = 0
KAI1 111118Z 34008KT M10/M14 A3008 RMK A01 T10981140  RH  071%=      5-min Rain = 0
KAI1 111119Z 35008KT M10/M14 A3008 RMK A01 T10971140  RH  071%=      5-min Rain = 0
KAI1 111120Z 34010KT M10/M14 A3008 RMK A01 T10971140  RH  071%=      5-min Rain = 0
KAI1 111121Z 34009KT M10/M14 A3008 RMK A01 T10971140  RH  071%=      5-min Rain = 0
KAI1 111122Z 35010KT M10/M14 A3008 RMK A01 T10971140  RH  071%=      5-min Rain = 0
KAI1 111123Z 35011KT M10/M14 A3008 RMK A01 T10961139  RH  071%=      5-min Rain = 0
KAI1 111124Z 34008KT M10/M14 A3009 RMK A01 T10961139  RH  071%=      5-min Rain = 0
KAI1 111125Z 34007KT M10/M14 A3009 RMK A01 T10961140  RH  071%=      5-min Rain = 0
KAI1 111126Z 34008KT M10/M14 A3009 RMK A01 T10961139  RH  071%=      5-min Rain = 0
KAI1 111127Z 34009KT M10/M14 A3009 RMK A01 T10951139  RH  071%=      5-min Rain = 0
KAI1 111128Z 34008KT M10/M14 A3009 RMK A01 T10951139  RH  071%=      5-min Rain = 0
KAI1 111129Z 34007KT M10/M14 A3009 RMK A01 T10951139  RH  070%=      5-min Rain = 0
KAI1 111130Z 34009KT M10/M14 A3009 RMK A01 T10951139  RH  070%=      5-min Rain = 0
KAI1 111131Z 34009KT M10/M14 A3009 RMK A01 T10951139  RH  070%=      5-min Rain = 0
KAI1 111132Z 34008KT M10/M14 A3009 RMK A01 T10951139  RH  070%=      5-min Rain = 0
KAI1 111133Z 34009KT M09/M14 A3009 RMK A01 T10941139  RH  070%=      5-min Rain = 0
KAI1 111134Z 35010KT M09/M14 A3009 RMK A01 T10941139  RH  070%=      5-min Rain = 0
KAI1 111135Z 34009KT M09/M14 A3009 RMK A01 T10941138  RH  070%=      5-min Rain = 0
KAI1 111136Z 35010KT M09/M14 A3009 RMK A01 T10941139  RH  070%=      5-min Rain = 0
KAI1 111137Z 35010KT M09/M14 A3009 RMK A01 T10941138  RH  070%=      5-min Rain = 0
KAI1 111138Z 35010KT M09/M14 A3009 RMK A01 T10941138  RH  070%=      5-min Rain = 0
KAI1 111139Z 35012KT M09/M14 A3009 RMK A01 T10931138  RH  070%=      5-min Rain = 0
KAI1 111140Z 35010KT M09/M14 A3009 RMK A01 T10931138  RH  070%=      5-min Rain = 0
KAI1 111141Z 35010KT M09/M14 A3009 RMK A01 T10921138  RH  070%=      5-min Rain = 0
KAI1 111142Z 35011KT M09/M14 A3009 RMK A01 T10921138  RH  069%=      5-min Rain = 0
KAI1 111143Z 35012KT M09/M14 A3009 RMK A01 T10921138  RH  069%=      5-min Rain = 0
KAI1 111144Z 35013KT M09/M14 A3009 RMK A01 T10911137  RH  069%=      5-min Rain = 0
KAI1 111145Z 35011KT M09/M14 A3009 RMK A01 T10911137  RH  069%=      5-min Rain = 0
KAI1 111146Z 35010KT M09/M14 A3009 RMK A01 T10911138  RH  069%=      5-min Rain = 0
KAI1 111147Z 35011KT M09/M14 A3009 RMK A01 T10901137  RH  069%=      5-min Rain = 0
KAI1 111148Z 35011KT M09/M14 A3009 RMK A01 T10911137  RH  069%=      5-min Rain = 0
KAI1 111149Z 35012KT M09/M14 A3009 RMK A01 T10901137  RH  069%=      5-min Rain = 0
KAI1 111150Z 35011KT M09/M14 A3009 RMK A01 T10901137  RH  069%=      5-min Rain = 0
KAI1 111151Z 35011KT M09/M14 A3009 RMK A01 T10901137  RH  069%=      5-min Rain = 0
KAI1 111152Z 36009KT M09/M14 A3009 RMK A01 T10901137  RH  069%=      5-min Rain = 0
KAI1 111153Z 36010KT M09/M14 A3009 RMK A01 T10901137  RH  068%=      5-min Rain = 0
KAI1 111154Z 36010KT M09/M14 A3009 RMK A01 T10891137  RH  068%=      5-min Rain = 0
KAI1 111155Z 00012KT M09/M14 A3009 RMK A01 T10891137  RH  068%=      5-min Rain = 0
KAI1 111156Z 35010KT M09/M14 A3009 RMK A01 T10891137  RH  068%=      5-min Rain = 0
KAI1 111157Z 35010KT M09/M14 A3009 RMK A01 T10891137  RH  068%=      5-min Rain = 0
KAI1 111158Z 35010KT M09/M14 A3009 RMK A01 T10881137  RH  068%=      5-min Rain = 0
KAI1 111159Z 35010KT M09/M14 A301 RMK A01 T10881137  RH  068%=      5-min Rain = 0
KAI1 111200Z 35012KT M09/M14 A301 RMK A01 T10881137  RH  067%=      5-min Rain = 0
KAI1 111201Z 35011KT M09/M14 A301 RMK A01 T10871137  RH  067%=      5-min Rain = 0
KAI1 111202Z 35012KT M09/M14 A301 RMK A01 T10871137  RH  067%=      5-min Rain = 0
KAI1 111203Z 35011KT M09/M14 A301 RMK A01 T10871138  RH  067%=      5-min Rain = 0
KAI1 111204Z 35012KT M09/M14 A301 RMK A01 T10871137  RH  067%=      5-min Rain = 0
KAI1 111205Z 35012KT M09/M14 A301 RMK A01 T10871137  RH  067%=      5-min Rain = 0
KAI1 111206Z 35011KT M09/M14 A301 RMK A01 T10871137  RH  067%=      5-min Rain = 0
KAI1 111207Z 35012KT M09/M14 A301 RMK A01 T10861137  RH  067%=      5-min Rain = 0
KAI1 111208Z 35013KT M09/M14 A301 RMK A01 T10861137  RH  066%=      5-min Rain = 0
KAI1 111209Z 35013KT M09/M14 A301 RMK A01 T10851137  RH  066%=      5-min Rain = 0
KAI1 111210Z 35014KT M09/M14 A301 RMK A01 T10861138  RH  066%=      5-min Rain = 0
KAI1 111211Z 36016KT M09/M14 A301 RMK A01 T10851138  RH  066%=      5-min Rain = 0
KAI1 111212Z 36015KT M09/M14 A301 RMK A01 T10851138  RH  066%=      5-min Rain = 0
KAI1 111213Z 36015KT M09/M14 A301 RMK A01 T10851138  RH  065%=      5-min Rain = 0
KAI1 111214Z 36013KT M09/M14 A301 RMK A01 T10851138  RH  065%=      5-min Rain = 0
KAI1 111215Z 36013KT M08/M14 A301 RMK A01 T10841138  RH  065%=      5-min Rain = 0
KAI1 111216Z 36015KT M08/M14 A301 RMK A01 T10841138  RH  065%=      5-min Rain = 0
KAI1 111217Z 36015KT M08/M14 A301 RMK A01 T10841139  RH  065%=      5-min Rain = 0
KAI1 111218Z 00014KT M08/M14 A301 RMK A01 T10841138  RH  065%=      5-min Rain = 0
KAI1 111219Z 00014KT M08/M14 A3009 RMK A01 T10841138  RH  065%=      5-min Rain = 0
KAI1 111220Z 36013KT M08/M14 A3009 RMK A01 T10841138  RH  065%=      5-min Rain = 0
KAI1 111221Z 36014KT M08/M14 A3009 RMK A01 T10841138  RH  065%=      5-min Rain = 0
KAI1 111222Z 35012KT M08/M14 A301 RMK A01 T10831138  RH  065%=      5-min Rain = 0
KAI1 111223Z 36012KT M08/M14 A301 RMK A01 T10831138  RH  065%=      5-min Rain = 0
KAI1 111224Z 36012KT M08/M14 A301 RMK A01 T10831138  RH  065%=      5-min Rain = 0
KAI1 111225Z 35014KT M08/M14 A301 RMK A01 T10831138  RH  064%=      5-min Rain = 0
KAI1 111226Z 35017KT M08/M14 A301 RMK A01 T10831138  RH  064%=      5-min Rain = 0
KAI1 111227Z 36016KT M08/M14 A301 RMK A01 T10831139  RH  064%=      5-min Rain = 0
KAI1 111228Z 35017KT M08/M14 A301 RMK A01 T10831139  RH  064%=      5-min Rain = 0
KAI1 111229Z 36017KT M08/M14 A301 RMK A01 T10831139  RH  064%=      5-min Rain = 0
KAI1 111230Z 35016KT M08/M14 A301 RMK A01 T10831139  RH  064%=      5-min Rain = 0
KAI1 111231Z 35017KT M08/M14 A301 RMK A01 T10831139  RH  064%=      5-min Rain = 0
KAI1 111232Z 35016KT M08/M14 A301 RMK A01 T10821139  RH  064%=      5-min Rain = 0
KAI1 111233Z 36016KT M08/M14 A301 RMK A01 T10821139  RH  064%=      5-min Rain = 0
KAI1 111234Z 35013KT M08/M14 A301 RMK A01 T10821139  RH  064%=      5-min Rain = 0
KAI1 111235Z 36014KT M08/M14 A301 RMK A01 T10821139  RH  064%=      5-min Rain = 0
KAI1 111236Z 36015KT M08/M14 A3011 RMK A01 T10821139  RH  064%=      5-min Rain = 0
KAI1 111237Z 35016KT M08/M14 A3011 RMK A01 T10821138  RH  064%=      5-min Rain = 0
KAI1 111238Z 36014KT M08/M14 A3011 RMK A01 T10821139  RH  064%=      5-min Rain = 0
KAI1 111239Z 35014KT M08/M14 A3011 RMK A01 T10811138  RH  064%=      5-min Rain = 0
KAI1 111240Z 35015KT M08/M14 A3011 RMK A01 T10811138  RH  063%=      5-min Rain = 0
KAI1 111241Z 36016KT M08/M14 A3011 RMK A01 T10811139  RH  063%=      5-min Rain = 0
KAI1 111242Z 36016KT M08/M14 A3011 RMK A01 T10811139  RH  063%=      5-min Rain = 0
KAI1 111243Z 36013KT M08/M14 A3011 RMK A01 T10811139  RH  063%=      5-min Rain = 0
KAI1 111244Z 35015KT M08/M14 A3011 RMK A01 T10811138  RH  063%=      5-min Rain = 0
KAI1 111245Z 35016KT M08/M14 A3011 RMK A01 T10811139  RH  063%=      5-min Rain = 0
KAI1 111246Z 35016KT M08/M14 A3011 RMK A01 T10811139  RH  063%=      5-min Rain = 0
KAI1 111247Z 35015KT M08/M14 A3011 RMK A01 T10811139  RH  063%=      5-min Rain = 0
KAI1 111248Z 35015KT M08/M14 A3011 RMK A01 T10801138  RH  063%=      5-min Rain = 0
KAI1 111249Z 35013KT M08/M14 A3011 RMK A01 T10801138  RH  063%=      5-min Rain = 0
KAI1 111250Z 35014KT M08/M14 A3011 RMK A01 T10811139  RH  063%=      5-min Rain = 0
KAI1 111251Z 35014KT M08/M14 A3011 RMK A01 T10801138  RH  063%=      5-min Rain = 0
KAI1 111252Z 35015KT M08/M14 A3011 RMK A01 T10801138  RH  063%=      5-min Rain = 0
KAI1 111253Z 35014KT M08/M14 A3011 RMK A01 T10801138  RH  063%=      5-min Rain = 0
KAI1 111254Z 36016KT M08/M14 A3011 RMK A01 T10801138  RH  063%=      5-min Rain = 0
KAI1 111255Z 35016KT M08/M14 A3011 RMK A01 T10801138  RH  063%=      5-min Rain = 0
KAI1 111256Z 35016KT M08/M14 A3011 RMK A01 T10801138  RH  063%=      5-min Rain = 0
KAI1 111257Z 35015KT M08/M14 A3011 RMK A01 T10801138  RH  063%=      5-min Rain = 0
KAI1 111258Z 35015KT M08/M14 A3011 RMK A01 T10801138  RH  063%=      5-min Rain = 0
KAI1 111259Z 35014KT M08/M14 A3012 RMK A01 T10801138  RH  063%=      5-min Rain = 0
KAI1 111300Z 35014KT M08/M14 A3012 RMK A01 T10801138  RH  063%=      5-min Rain = 0
KAI1 111301Z 35014KT M08/M14 A3012 RMK A01 T10801138  RH  063%=      5-min Rain = 0
KAI1 111302Z 35014KT M08/M14 A3012 RMK A01 T10801138  RH  063%=      5-min Rain = 0
KAI1 111303Z 35014KT M08/M14 A3012 RMK A01 T10801138  RH  063%=      5-min Rain = 0
KAI1 111304Z 34014KT M08/M14 A3012 RMK A01 T10801138  RH  063%=      5-min Rain = 0
KAI1 111305Z 34015KT M08/M14 A3012 RMK A01 T10801138  RH  063%=      5-min Rain = 0
KAI1 111306Z 35013KT M08/M14 A3012 RMK A01 T10801138  RH  063%=      5-min Rain = 0
KAI1 111307Z 35013KT M08/M14 A3012 RMK A01 T10801138  RH  063%=      5-min Rain = 0
KAI1 111308Z 34013KT M08/M14 A3012 RMK A01 T10801138  RH  063%=      5-min Rain = 0
KAI1 111309Z 35013KT M08/M14 A3012 RMK A01 T10801138  RH  063%=      5-min Rain = 0
KAI1 111310Z 35015KT M08/M14 A3012 RMK A01 T10801138  RH  063%=      5-min Rain = 0
KAI1 111311Z 35017KT M08/M14 A3013 RMK A01 T10801138  RH  063%=      5-min Rain = 0
KAI1 111312Z 35013KT M08/M14 A3013 RMK A01 T10801138  RH  063%=      5-min Rain = 0
KAI1 111313Z 35014KT M08/M14 A3013 RMK A01 T10801138  RH  063%=      5-min Rain = 0
KAI1 111314Z 35013KT M08/M14 A3013 RMK A01 T10801138  RH  063%=      5-min Rain = 0
KAI1 111315Z 36012KT M08/M14 A3013 RMK A01 T10801138  RH  063%=      5-min Rain = 0
KAI1 111316Z 35014KT M08/M14 A3013 RMK A01 T10801138  RH  063%=      5-min Rain = 0
KAI1 111317Z 35014KT M08/M14 A3013 RMK A01 T10801137  RH  063%=      5-min Rain = 0
KAI1 111318Z 35013KT M08/M14 A3013 RMK A01 T10801138  RH  063%=      5-min Rain = 0
KAI1 111319Z 35013KT M08/M14 A3013 RMK A01 T10801137  RH  063%=      5-min Rain = 0
KAI1 111320Z 35013KT M08/M14 A3013 RMK A01 T10801137  RH  063%=      5-min Rain = 0
KAI1 111321Z 35013KT M08/M14 A3013 RMK A01 T10801137  RH  064%=      5-min Rain = 0
KAI1 111322Z 35013KT M08/M14 A3013 RMK A01 T10801137  RH  064%=      5-min Rain = 0
KAI1 111323Z 35012KT M08/M14 A3013 RMK A01 T10801137  RH  064%=      5-min Rain = 0
KAI1 111324Z 35014KT M08/M14 A3013 RMK A01 T10801137  RH  064%=      5-min Rain = 0
KAI1 111325Z 35015KT M08/M14 A3013 RMK A01 T10801137  RH  064%=      5-min Rain = 0
KAI1 111326Z 35014KT M08/M14 A3013 RMK A01 T10801137  RH  064%=      5-min Rain = 0
KAI1 111327Z 35015KT M08/M14 A3013 RMK A01 T10801136  RH  064%=      5-min Rain = 0
KAI1 111328Z 35014KT M08/M14 A3013 RMK A01 T10801136  RH  064%=      5-min Rain = 0
KAI1 111329Z 35015KT M08/M14 A3013 RMK A01 T10801136  RH  064%=      5-min Rain = 0
KAI1 111330Z 35015KT M08/M14 A3013 RMK A01 T10791136  RH  064%=      5-min Rain = 0
KAI1 111331Z 35014KT M08/M14 A3013 RMK A01 T10791136  RH  064%=      5-min Rain = 0
KAI1 111332Z 35013KT M08/M14 A3013 RMK A01 T10791136  RH  064%=      5-min Rain = 0
KAI1 111333Z 35012KT M08/M14 A3013 RMK A01 T10791136  RH  064%=      5-min Rain = 0
KAI1 111334Z 35013KT M08/M14 A3013 RMK A01 T10791136  RH  064%=      5-min Rain = 0
KAI1 111335Z 35013KT M08/M14 A3013 RMK A01 T10801136  RH  064%=      5-min Rain = 0
KAI1 111336Z 35012KT M08/M14 A3013 RMK A01 T10791136  RH  064%=      5-min Rain = 0
KAI1 111337Z 35014KT M08/M14 A3013 RMK A01 T10791136  RH  064%=      5-min Rain = 0
KAI1 111338Z 35012KT M08/M14 A3013 RMK A01 T10801136  RH  064%=      5-min Rain = 0
KAI1 111339Z 36012KT M08/M14 A3014 RMK A01 T10791136  RH  064%=      5-min Rain = 0
KAI1 111340Z 35011KT M08/M14 A3014 RMK A01 T10791136  RH  064%=      5-min Rain = 0
KAI1 111341Z 35012KT M08/M14 A3014 RMK A01 T10791136  RH  064%=      5-min Rain = 0
KAI1 111342Z 36012KT M08/M14 A3014 RMK A01 T10791135  RH  064%=      5-min Rain = 0
KAI1 111343Z 35011KT M08/M14 A3014 RMK A01 T10791135  RH  064%=      5-min Rain = 0
KAI1 111344Z 35009KT M08/M14 A3014 RMK A01 T10791135  RH  064%=      5-min Rain = 0
KAI1 111345Z 35013KT M08/M14 A3014 RMK A01 T10791135  RH  064%=      5-min Rain = 0
KAI1 111346Z 35012KT M08/M14 A3014 RMK A01 T10781135  RH  064%=      5-min Rain = 0
KAI1 111347Z 35010KT M08/M13 A3014 RMK A01 T10781134  RH  064%=      5-min Rain = 0
KAI1 111348Z 35009KT M08/M13 A3014 RMK A01 T10781134  RH  064%=      5-min Rain = 0
KAI1 111349Z 35010KT M08/M14 A3014 RMK A01 T10781135  RH  064%=      5-min Rain = 0
KAI1 111350Z 36011KT M08/M13 A3014 RMK A01 T10781134  RH  064%=      5-min Rain = 0
KAI1 111351Z 35012KT M08/M13 A3014 RMK A01 T10781134  RH  064%=      5-min Rain = 0
KAI1 111352Z 00010KT M08/M13 A3015 RMK A01 T10781134  RH  064%=      5-min Rain = 0
KAI1 111353Z 35010KT M08/M13 A3015 RMK A01 T10771134  RH  064%=      5-min Rain = 0
KAI1 111354Z 35010KT M08/M13 A3015 RMK A01 T10771133  RH  064%=      5-min Rain = 0
KAI1 111355Z 36010KT M08/M13 A3015 RMK A01 T10771133  RH  064%=      5-min Rain = 0
KAI1 111356Z 36010KT M08/M13 A3015 RMK A01 T10761133  RH  064%=      5-min Rain = 0
KAI1 111357Z 36011KT M08/M13 A3015 RMK A01 T10761133  RH  064%=      5-min Rain = 0
KAI1 111358Z 35013KT M08/M13 A3015 RMK A01 T10761133  RH  064%=      5-min Rain = 0
KAI1 111359Z 35013KT M08/M13 A3016 RMK A01 T10761133  RH  064%=      5-min Rain = 0
KAI1 111400Z 35011KT M08/M13 A3016 RMK A01 T10751132  RH  064%=      5-min Rain = 0
KAI1 111401Z 35012KT M08/M13 A3016 RMK A01 T10751132  RH  064%=      5-min Rain = 0
KAI1 111402Z 35011KT M08/M13 A3016 RMK A01 T10751132  RH  063%=      5-min Rain = 0
KAI1 111403Z 34011KT M08/M13 A3016 RMK A01 T10751132  RH  063%=      5-min Rain = 0
KAI1 111404Z 35010KT M07/M13 A3016 RMK A01 T10741132  RH  063%=      5-min Rain = 0
KAI1 111405Z 35011KT M07/M13 A3016 RMK A01 T10741132  RH  063%=      5-min Rain = 0
KAI1 111406Z 34011KT M07/M13 A3016 RMK A01 T10741132  RH  063%=      5-min Rain = 0
KAI1 111407Z 35011KT M07/M13 A3016 RMK A01 T10741132  RH  063%=      5-min Rain = 0
KAI1 111408Z 35011KT M07/M13 A3016 RMK A01 T10741132  RH  063%=      5-min Rain = 0
KAI1 111409Z 35008KT M07/M13 A3016 RMK A01 T10741132  RH  063%=      5-min Rain = 0
KAI1 111410Z 34010KT M07/M13 A3017 RMK A01 T10731132  RH  063%=      5-min Rain = 0
KAI1 111411Z 34011KT M07/M13 A3016 RMK A01 T10731132  RH  063%=      5-min Rain = 0
KAI1 111412Z 34011KT M07/M13 A3017 RMK A01 T10731132  RH  063%=      5-min Rain = 0
KAI1 111413Z 35010KT M07/M13 A3017 RMK A01 T10741132  RH  063%=      5-min Rain = 0
KAI1 111414Z 35011KT M07/M13 A3017 RMK A01 T10731132  RH  063%=      5-min Rain = 0
KAI1 111415Z 35011KT M07/M13 A3017 RMK A01 T10731132  RH  063%=      5-min Rain = 0
KAI1 111416Z 35009KT M07/M13 A3017 RMK A01 T10731132  RH  063%=      5-min Rain = 0
KAI1 111417Z 34010KT M07/M13 A3017 RMK A01 T10731132  RH  063%=      5-min Rain = 0
KAI1 111418Z 35011KT M07/M13 A3017 RMK A01 T10721131  RH  063%=      5-min Rain = 0
KAI1 111419Z 35012KT M07/M13 A3017 RMK A01 T10731132  RH  063%=      5-min Rain = 0
KAI1 111420Z 35011KT M07/M13 A3017 RMK A01 T10731132  RH  063%=      5-min Rain = 0
KAI1 111421Z 35009KT M07/M13 A3017 RMK A01 T10731132  RH  063%=      5-min Rain = 0
KAI1 111422Z 35012KT M07/M13 A3017 RMK A01 T10731132  RH  063%=      5-min Rain = 0
KAI1 111423Z 35011KT M07/M13 A3017 RMK A01 T10731132  RH  063%=      5-min Rain = 0
KAI1 111424Z 35011KT M07/M13 A3017 RMK A01 T10731131  RH  063%=      5-min Rain = 0
KAI1 111425Z 35011KT M07/M13 A3017 RMK A01 T10731131  RH  063%=      5-min Rain = 0
KAI1 111426Z 34009KT M07/M13 A3017 RMK A01 T10731131  RH  063%=      5-min Rain = 0
KAI1 111427Z 35009KT M07/M13 A3017 RMK A01 T10731131  RH  063%=      5-min Rain = 0
KAI1 111428Z 35009KT M07/M13 A3017 RMK A01 T10721131  RH  063%=      5-min Rain = 0
KAI1 111429Z 34011KT M07/M13 A3017 RMK A01 T10721130  RH  063%=      5-min Rain = 0
KAI1 111430Z 34010KT M07/M13 A3017 RMK A01 T10721131  RH  063%=      5-min Rain = 0
KAI1 111431Z 35010KT M07/M13 A3017 RMK A01 T10721130  RH  063%=      5-min Rain = 0
KAI1 111432Z 34010KT M07/M13 A3017 RMK A01 T10721130  RH  063%=      5-min Rain = 0
KAI1 111433Z 34010KT M07/M13 A3017 RMK A01 T10721130  RH  063%=      5-min Rain = 0
KAI1 111434Z 34010KT M07/M13 A3017 RMK A01 T10711130  RH  063%=      5-min Rain = 0
KAI1 111435Z 34010KT M07/M13 A3017 RMK A01 T10721130  RH  063%=      5-min Rain = 0
KAI1 111436Z 35010KT M07/M13 A3018 RMK A01 T10721130  RH  063%=      5-min Rain = 0
KAI1 111437Z 34010KT M07/M13 A3018 RMK A01 T10721130  RH  063%=      5-min Rain = 0
KAI1 111438Z 35009KT M07/M13 A3018 RMK A01 T10711130  RH  063%=      5-min Rain = 0
KAI1 111439Z 35011KT M07/M13 A3018 RMK A01 T10711130  RH  063%=      5-min Rain = 0
KAI1 111440Z 35010KT M07/M13 A3018 RMK A01 T10711130  RH  063%=      5-min Rain = 0
KAI1 111441Z 35009KT M07/M13 A3018 RMK A01 T10711130  RH  063%=      5-min Rain = 0
KAI1 111442Z 34009KT M07/M13 A3018 RMK A01 T10701129  RH  063%=      5-min Rain = 0
KAI1 111443Z 35010KT M07/M13 A3018 RMK A01 T10701129  RH  063%=      5-min Rain = 0
KAI1 111444Z 35009KT M07/M13 A3018 RMK A01 T10701129  RH  063%=      5-min Rain = 0
KAI1 111445Z 35009KT M07/M13 A3018 RMK A01 T10701129  RH  063%=      5-min Rain = 0
KAI1 111446Z 35010KT M07/M13 A3018 RMK A01 T10701129  RH  063%=      5-min Rain = 0
KAI1 111447Z 34009KT M07/M13 A3018 RMK A01 T10701129  RH  063%=      5-min Rain = 0
KAI1 111448Z 34010KT M07/M13 A3018 RMK A01 T10681128  RH  063%=      5-min Rain = 0
KAI1 111449Z 34008KT M07/M13 A3019 RMK A01 T10681128  RH  063%=      5-min Rain = 0
KAI1 111450Z 34010KT M07/M13 A3019 RMK A01 T10691128  RH  063%=      5-min Rain = 0
KAI1 111451Z 34008KT M07/M13 A3019 RMK A01 T10681128  RH  063%=      5-min Rain = 0
KAI1 111452Z 33011KT M07/M13 A3019 RMK A01 T10681127  RH  063%=      5-min Rain = 0
KAI1 111453Z 33009KT M07/M13 A3019 RMK A01 T10681127  RH  062%=      5-min Rain = 0
KAI1 111454Z 34011KT M07/M13 A3019 RMK A01 T10671127  RH  062%=      5-min Rain = 0
KAI1 111455Z 34011KT M07/M13 A3019 RMK A01 T10671127  RH  062%=      5-min Rain = 0
KAI1 111456Z 34009KT M07/M13 A3019 RMK A01 T10681128  RH  062%=      5-min Rain = 0
KAI1 111457Z 34008KT M07/M13 A3019 RMK A01 T10681128  RH  062%=      5-min Rain = 0
KAI1 111458Z 34010KT M07/M13 A3019 RMK A01 T10671127  RH  062%=      5-min Rain = 0
KAI1 111459Z 34010KT M07/M13 A3019 RMK A01 T10671127  RH  062%=      5-min Rain = 0
KAI1 111500Z 34010KT M07/M13 A3019 RMK A01 T10671127  RH  062%=      5-min Rain = 0
KAI1 111501Z 34010KT M07/M13 A3019 RMK A01 T10671127  RH  062%=      5-min Rain = 0
KAI1 111502Z 34011KT M07/M13 A3019 RMK A01 T10671127  RH  062%=      5-min Rain = 0
KAI1 111503Z 34008KT M07/M13 A3019 RMK A01 T10671128  RH  062%=      5-min Rain = 0
KAI1 111504Z 33009KT M07/M13 A3019 RMK A01 T10671127  RH  062%=      5-min Rain = 0
KAI1 111505Z 34011KT M07/M13 A3019 RMK A01 T10661126  RH  062%=      5-min Rain = 0
KAI1 111506Z 35012KT M07/M13 A3019 RMK A01 T10661127  RH  062%=      5-min Rain = 0
KAI1 111507Z 35009KT M07/M13 A3019 RMK A01 T10661127  RH  062%=      5-min Rain = 0
KAI1 111508Z 34009KT M07/M13 A3019 RMK A01 T10661126  RH  062%=      5-min Rain = 0
KAI1 111509Z 34010KT M07/M13 A3019 RMK A01 T10651125  RH  062%=      5-min Rain = 0
KAI1 111510Z 34009KT M07/M13 A3019 RMK A01 T10651126  RH  062%=      5-min Rain = 0
KAI1 111511Z 34010KT M07/M13 A3019 RMK A01 T10651126  RH  062%=      5-min Rain = 0
KAI1 111512Z 35008KT M06/M13 A3019 RMK A01 T10641125  RH  062%=      5-min Rain = 0
KAI1 111513Z 35008KT M06/M12 A3019 RMK A01 T10631124  RH  062%=      5-min Rain = 0
KAI1 111514Z 35009KT M06/M12 A3019 RMK A01 T10621124  RH  062%=      5-min Rain = 0
KAI1 111515Z 34008KT M06/M12 A302 RMK A01 T10621124  RH  061%=      5-min Rain = 0
KAI1 111516Z 34009KT M06/M12 A302 RMK A01 T10621124  RH  061%=      5-min Rain = 0
KAI1 111517Z 34010KT M06/M12 A302 RMK A01 T10621124  RH  061%=      5-min Rain = 0
KAI1 111518Z 33009KT M06/M12 A302 RMK A01 T10611124  RH  061%=      5-min Rain = 0
KAI1 111519Z 33010KT M06/M12 A302 RMK A01 T10611124  RH  061%=      5-min Rain = 0
KAI1 111520Z 33013KT M06/M12 A302 RMK A01 T10601123  RH  061%=      5-min Rain = 0
KAI1 111521Z 34012KT M06/M12 A302 RMK A01 T10601123  RH  061%=      5-min Rain = 0
KAI1 111522Z 34013KT M06/M12 A302 RMK A01 T10601123  RH  061%=      5-min Rain = 0
KAI1 111523Z 34013KT M06/M12 A302 RMK A01 T10601123  RH  061%=      5-min Rain = 0
KAI1 111524Z 34012KT M06/M12 A3019 RMK A01 T10601123  RH  061%=      5-min Rain = 0
KAI1 111525Z 34012KT M06/M12 A3019 RMK A01 T10601123  RH  061%=      5-min Rain = 0
KAI1 111526Z 34013KT M06/M12 A302 RMK A01 T10591123  RH  061%=      5-min Rain = 0
KAI1 111527Z 33012KT M06/M12 A302 RMK A01 T10591123  RH  061%=      5-min Rain = 0
KAI1 111528Z 34012KT M06/M12 A302 RMK A01 T10601123  RH  061%=      5-min Rain = 0
KAI1 111529Z 34010KT M06/M12 A302 RMK A01 T10591123  RH  061%=      5-min Rain = 0
KAI1 111530Z 35012KT M06/M12 A302 RMK A01 T10581122  RH  061%=      5-min Rain = 0
KAI1 111531Z 35013KT M06/M12 A302 RMK A01 T10571121  RH  061%=      5-min Rain = 0
KAI1 111532Z 35012KT M06/M12 A302 RMK A01 T10571122  RH  060%=      5-min Rain = 0
KAI1 111533Z 35012KT M06/M12 A302 RMK A01 T10581123  RH  060%=      5-min Rain = 0
KAI1 111534Z 35010KT M06/M12 A302 RMK A01 T10571122  RH  060%=      5-min Rain = 0
KAI1 111535Z 34011KT M06/M12 A302 RMK A01 T10561121  RH  060%=      5-min Rain = 0
KAI1 111536Z 35011KT M06/M12 A302 RMK A01 T10561122  RH  060%=      5-min Rain = 0
KAI1 111537Z 35012KT M06/M12 A302 RMK A01 T10561121  RH  060%=      5-min Rain = 0
KAI1 111538Z 35012KT M06/M12 A302 RMK A01 T10561122  RH  060%=      5-min Rain = 0
KAI1 111539Z 34011KT M06/M12 A302 RMK A01 T10571123  RH  060%=      5-min Rain = 0
KAI1 111540Z 34011KT M06/M12 A302 RMK A01 T10571123  RH  060%=      5-min Rain = 0
KAI1 111541Z 34011KT M06/M12 A302 RMK A01 T10571122  RH  060%=      5-min Rain = 0
KAI1 111542Z 34010KT M06/M12 A302 RMK A01 T10571122  RH  060%=      5-min Rain = 0
KAI1 111543Z 35012KT M06/M12 A302 RMK A01 T10561121  RH  060%=      5-min Rain = 0
KAI1 111544Z 34010KT M06/M12 A302 RMK A01 T10561122  RH  060%=      5-min Rain = 0
KAI1 111545Z 34009KT M06/M12 A302 RMK A01 T10561122  RH  060%=      5-min Rain = 0
KAI1 111546Z 34011KT M06/M12 A302 RMK A01 T10561122  RH  060%=      5-min Rain = 0
KAI1 111547Z 34009KT M06/M12 A302 RMK A01 T10561122  RH  060%=      5-min Rain = 0
KAI1 111548Z 35009KT M06/M12 A302 RMK A01 T10561122  RH  060%=      5-min Rain = 0
KAI1 111549Z 34010KT M05/M12 A302 RMK A01 T10541120  RH  060%=      5-min Rain = 0
KAI1 111550Z 34011KT M05/M12 A302 RMK A01 T10541121  RH  059%=      5-min Rain = 0
KAI1 111551Z 34010KT M06/M12 A302 RMK A01 T10551122  RH  059%=      5-min Rain = 0
KAI1 111552Z 33011KT M06/M12 A302 RMK A01 T10551122  RH  059%=      5-min Rain = 0
KAI1 111553Z 33010KT M06/M12 A3021 RMK A01 T10551122  RH  059%=      5-min Rain = 0
KAI1 111554Z 35011KT M06/M12 A3021 RMK A01 T10551122  RH  059%=      5-min Rain = 0
KAI1 111555Z 35011KT M05/M12 A3021 RMK A01 T10541122  RH  059%=      5-min Rain = 0
KAI1 111556Z 34011KT M05/M12 A3021 RMK A01 T10531121  RH  059%=      5-min Rain = 0
KAI1 111557Z 35012KT M05/M12 A3021 RMK A01 T10531121  RH  059%=      5-min Rain = 0
KAI1 111558Z 35012KT M05/M12 A302 RMK A01 T10531121  RH  059%=      5-min Rain = 0
KAI1 111559Z 35011KT M05/M12 A3021 RMK A01 T10531122  RH  058%=      5-min Rain = 0
KAI1 111600Z 35010KT M05/M12 A3021 RMK A01 T10531122  RH  059%=      5-min Rain = 0
KAI1 111601Z 35012KT M05/M12 A3021 RMK A01 T10531122  RH  059%=      5-min Rain = 0
KAI1 111602Z 34011KT M05/M12 A302 RMK A01 T10531122  RH  058%=      5-min Rain = 0
KAI1 111603Z 34011KT M05/M12 A302 RMK A01 T10541123  RH  058%=      5-min Rain = 0
KAI1 111604Z 33012KT M05/M12 A302 RMK A01 T10531122  RH  059%=      5-min Rain = 0
KAI1 111605Z 34011KT M05/M12 A302 RMK A01 T10521121  RH  058%=      5-min Rain = 0
KAI1 111606Z 33012KT M05/M12 A302 RMK A01 T10511121  RH  058%=      5-min Rain = 0
KAI1 111607Z 34012KT M05/M12 A3021 RMK A01 T10511121  RH  058%=      5-min Rain = 0
KAI1 111608Z 34012KT M05/M12 A3021 RMK A01 T10511122  RH  058%=      5-min Rain = 0
KAI1 111609Z 34011KT M05/M12 A3021 RMK A01 T10521122  RH  058%=      5-min Rain = 0
KAI1 111610Z 35011KT M05/M12 A3021 RMK A01 T10521122  RH  058%=      5-min Rain = 0
KAI1 111611Z 33011KT M05/M12 A3021 RMK A01 T10511121  RH  058%=      5-min Rain = 0
KAI1 111612Z 33013KT M05/M12 A3021 RMK A01 T10501120  RH  058%=      5-min Rain = 0
KAI1 111613Z 33013KT M05/M12 A3021 RMK A01 T10501121  RH  057%=      5-min Rain = 0
KAI1 111614Z 33012KT M05/M12 A3021 RMK A01 T10501121  RH  057%=      5-min Rain = 0
KAI1 111615Z 33012KT M05/M12 A3021 RMK A01 T10501121  RH  058%=      5-min Rain = 0
KAI1 111616Z 33012KT M05/M12 A3021 RMK A01 T10501121  RH  057%=      5-min Rain = 0
KAI1 111617Z 34012KT M05/M12 A3021 RMK A01 T10491121  RH  057%=      5-min Rain = 0
KAI1 111618Z 35012KT M05/M12 A3021 RMK A01 T10491120  RH  057%=      5-min Rain = 0
KAI1 111619Z 35011KT M05/M12 A3021 RMK A01 T10471119  RH  057%=      5-min Rain = 0
KAI1 111620Z 35013KT M05/M12 A3021 RMK A01 T10471120  RH  057%=      5-min Rain = 0
KAI1 111621Z 34012KT M05/M12 A3021 RMK A01 T10471120  RH  057%=      5-min Rain = 0
KAI1 111622Z 34011KT M05/M12 A3021 RMK A01 T10471120  RH  057%=      5-min Rain = 0
KAI1 111623Z 35011KT M05/M12 A3021 RMK A01 T10471120  RH  057%=      5-min Rain = 0
KAI1 111624Z 34010KT M05/M12 A3021 RMK A01 T10461120  RH  056%=      5-min Rain = 0
KAI1 111625Z 34012KT M05/M12 A3021 RMK A01 T10461120  RH  056%=      5-min Rain = 0
KAI1 111626Z 33011KT M05/M12 A3021 RMK A01 T10461120  RH  056%=      5-min Rain = 0
KAI1 111627Z 33010KT M05/M12 A3021 RMK A01 T10461121  RH  056%=      5-min Rain = 0
KAI1 111628Z 34009KT M05/M12 A3021 RMK A01 T10461120  RH  056%=      5-min Rain = 0
KAI1 111629Z 34011KT M05/M12 A3021 RMK A01 T10451119  RH  056%=      5-min Rain = 0
KAI1 111630Z 34009KT M04/M12 A3021 RMK A01 T10441119  RH  056%=      5-min Rain = 0
KAI1 111631Z 33010KT M04/M12 A3021 RMK A01 T10441120  RH  055%=      5-min Rain = 0
KAI1 111632Z 33011KT M04/M12 A3021 RMK A01 T10431120  RH  055%=      5-min Rain = 0
KAI1 111633Z 33010KT M04/M12 A3021 RMK A01 T10441121  RH  055%=      5-min Rain = 0
KAI1 111634Z 33010KT M04/M12 A3021 RMK A01 T10431120  RH  055%=      5-min Rain = 0
KAI1 111635Z 34010KT M04/M12 A3021 RMK A01 T10431120  RH  055%=      5-min Rain = 0
KAI1 111636Z 33011KT M04/M12 A3021 RMK A01 T10421119  RH  055%=      5-min Rain = 0
KAI1 111637Z 33012KT M04/M12 A3021 RMK A01 T10421120  RH  055%=      5-min Rain = 0
KAI1 111638Z 35012KT M04/M12 A3021 RMK A01 T10421120  RH  054%=      5-min Rain = 0
KAI1 111639Z 34009KT M04/M12 A3021 RMK A01 T10421120  RH  054%=      5-min Rain = 0
KAI1 111640Z 34010KT M04/M12 A3021 RMK A01 T10401119  RH  054%=      5-min Rain = 0
KAI1 111641Z 34009KT M04/M12 A3021 RMK A01 T10391118  RH  054%=      5-min Rain = 0
KAI1 111642Z 33010KT M04/M12 A3021 RMK A01 T10391118  RH  054%=      5-min Rain = 0
KAI1 111643Z 32009KT M04/M12 A3021 RMK A01 T10381118  RH  054%=      5-min Rain = 0
KAI1 111644Z 34008KT M04/M12 A3021 RMK A01 T10371118  RH  054%=      5-min Rain = 0
KAI1 111645Z 35011KT M04/M12 A3021 RMK A01 T10371118  RH  053%=      5-min Rain = 0
KAI1 111646Z 34010KT M04/M12 A3021 RMK A01 T10371119  RH  053%=      5-min Rain = 0
KAI1 111647Z 33011KT M04/M12 A3021 RMK A01 T10361119  RH  053%=      5-min Rain = 0
KAI1 111648Z 33009KT M04/M12 A3021 RMK A01 T10371119  RH  053%=      5-min Rain = 0
KAI1 111649Z 35011KT M04/M12 A3021 RMK A01 T10371119  RH  053%=      5-min Rain = 0
KAI1 111650Z 33011KT M04/M12 A3021 RMK A01 T10361118  RH  053%=      5-min Rain = 0
KAI1 111651Z 33012KT M04/M12 A3021 RMK A01 T10351119  RH  052%=      5-min Rain = 0
KAI1 111652Z 33013KT M04/M12 A3021 RMK A01 T10361119  RH  052%=      5-min Rain = 0
KAI1 111653Z 34011KT M04/M12 A3021 RMK A01 T10351120  RH  052%=      5-min Rain = 0
KAI1 111654Z 33011KT M04/M12 A3021 RMK A01 T10351119  RH  052%=      5-min Rain = 0
KAI1 111655Z 35010KT M03/M12 A3021 RMK A01 T10341119  RH  052%=      5-min Rain = 0
KAI1 111656Z 36011KT M03/M12 A3021 RMK A01 T10331118  RH  052%=      5-min Rain = 0
KAI1 111657Z 34011KT M03/M12 A3021 RMK A01 T10321118  RH  051%=      5-min Rain = 0
KAI1 111658Z 34012KT M03/M12 A3021 RMK A01 T10321118  RH  051%=      5-min Rain = 0
KAI1 111659Z 34010KT M03/M12 A3021 RMK A01 T10321120  RH  051%=      5-min Rain = 0
KAI1 111700Z 34010KT M03/M12 A3021 RMK A01 T10311117  RH  052%=      5-min Rain = 0
KAI1 111701Z 35012KT M03/M12 A3021 RMK A01 T10291116  RH  051%=      5-min Rain = 0
KAI1 111702Z 35012KT M03/M12 A3021 RMK A01 T10291118  RH  050%=      5-min Rain = 0
KAI1 111703Z 34011KT M03/M12 A3021 RMK A01 T10291118  RH  050%=      5-min Rain = 0
KAI1 111704Z 34011KT M03/M12 A3021 RMK A01 T10291119  RH  050%=      5-min Rain = 0
KAI1 111705Z 34011KT M03/M12 A3021 RMK A01 T10301119  RH  050%=      5-min Rain = 0
KAI1 111706Z 34010KT M03/M12 A3022 RMK A01 T10301118  RH  051%=      5-min Rain = 0
KAI1 111707Z 33011KT M03/M12 A3022 RMK A01 T10291117  RH  050%=      5-min Rain = 0
KAI1 111708Z 34011KT M03/M12 A3022 RMK A01 T10291118  RH  050%=      5-min Rain = 0
KAI1 111709Z 34010KT M03/M12 A3022 RMK A01 T10281119  RH  050%=      5-min Rain = 0
KAI1 111710Z 35012KT M03/M12 A3022 RMK A01 T10291119  RH  050%=      5-min Rain = 0
KAI1 111711Z 35013KT M03/M12 A3022 RMK A01 T10281118  RH  050%=      5-min Rain = 0
KAI1 111712Z 34010KT M03/M12 A3022 RMK A01 T10251116  RH  050%=      5-min Rain = 0
KAI1 111713Z 35012KT M02/M11 A3022 RMK A01 T10221114  RH  049%=      5-min Rain = 0
KAI1 111714Z 35012KT M02/M12 A3022 RMK A01 T10211115  RH  049%=      5-min Rain = 0
KAI1 111715Z 36011KT M02/M12 A3022 RMK A01 T10211115  RH  048%=      5-min Rain = 0
KAI1 111716Z 34011KT M02/M12 A3022 RMK A01 T10211115  RH  049%=      5-min Rain = 0
KAI1 111717Z 34009KT M02/M12 A3022 RMK A01 T10211116  RH  048%=      5-min Rain = 0
KAI1 111718Z 33012KT M02/M12 A3022 RMK A01 T10231118  RH  048%=      5-min Rain = 0
KAI1 111719Z 34011KT M02/M12 A3022 RMK A01 T10221115  RH  049%=      5-min Rain = 0
KAI1 111720Z 35010KT M02/M12 A3022 RMK A01 T10221117  RH  048%=      5-min Rain = 0
KAI1 111721Z 34010KT M02/M12 A3022 RMK A01 T10241118  RH  048%=      5-min Rain = 0
KAI1 111722Z 34011KT M02/M12 A3022 RMK A01 T10231116  RH  049%=      5-min Rain = 0
KAI1 111723Z 35012KT M02/M12 A3022 RMK A01 T10221115  RH  049%=      5-min Rain = 0
KAI1 111724Z 35011G16KT M02/M12 A3022 RMK A01 T10201115  RH  048%=      5-min Rain = 0
KAI1 111725Z 34011KT M02/M11 A3022 RMK A01 T10191113  RH  049%=      5-min Rain = 0
KAI1 111726Z 34010KT M02/M11 A3022 RMK A01 T10201114  RH  048%=      5-min Rain = 0
KAI1 111727Z 34011KT M02/M11 A3022 RMK A01 T10191113  RH  048%=      5-min Rain = 0
KAI1 111728Z 35012KT M02/M11 A3022 RMK A01 T10181113  RH  048%=      5-min Rain = 0
KAI1 111729Z 35012KT M02/M11 A3022 RMK A01 T10171113  RH  048%=      5-min Rain = 0
KAI1 111730Z 35010KT M02/M11 A3022 RMK A01 T10171114  RH  048%=      5-min Rain = 0
KAI1 111731Z 35011KT M02/M11 A3022 RMK A01 T10151111  RH  048%=      5-min Rain = 0
KAI1 111732Z 35012KT M02/M11 A3022 RMK A01 T10151113  RH  047%=      5-min Rain = 0
KAI1 111733Z 35014KT M02/M11 A3022 RMK A01 T10171114  RH  047%=      5-min Rain = 0
KAI1 111734Z 35013KT M02/M11 A3022 RMK A01 T10161114  RH  047%=      5-min Rain = 0
KAI1 111735Z 34012KT M02/M11 A3022 RMK A01 T10161114  RH  047%=      5-min Rain = 0
KAI1 111736Z 34010KT M02/M11 A3021 RMK A01 T10151113  RH  047%=      5-min Rain = 0
KAI1 111737Z 34010KT M02/M11 A3021 RMK A01 T10151113  RH  047%=      5-min Rain = 0
KAI1 111738Z 34010G19KT M01/M11 A3021 RMK A01 T10141112  RH  047%=      5-min Rain = 0
KAI1 111739Z 34014KT M01/M11 A3021 RMK A01 T10111109  RH  047%=      5-min Rain = 0
KAI1 111740Z 33013KT M01/M11 A3021 RMK A01 T10121111  RH  047%=      5-min Rain = 0
KAI1 111741Z 35015KT M01/M11 A3021 RMK A01 T10111111  RH  047%=      5-min Rain = 0
KAI1 111742Z 35014KT M01/M11 A3021 RMK A01 T10101110  RH  047%=      5-min Rain = 0
KAI1 111743Z 34009KT M01/M11 A3022 RMK A01 T10101111  RH  046%=      5-min Rain = 0
KAI1 111744Z 34010KT M01/M11 A3021 RMK A01 T10111111  RH  046%=      5-min Rain = 0
KAI1 111745Z 32012G17KT M01/M11 A3021 RMK A01 T10121112  RH  046%=      5-min Rain = 0
KAI1 111746Z 33014KT M01/M11 A3021 RMK A01 T10101110  RH  047%=      5-min Rain = 0
KAI1 111747Z 33013KT M01/M11 A3021 RMK A01 T10101111  RH  046%=      5-min Rain = 0
KAI1 111748Z 34013KT M01/M11 A3021 RMK A01 T10091111  RH  046%=      5-min Rain = 0
KAI1 111749Z 34013KT M01/M11 A3021 RMK A01 T10091111  RH  046%=      5-min Rain = 0
KAI1 111750Z 33012KT M01/M11 A3021 RMK A01 T10081110  RH  046%=      5-min Rain = 0
KAI1 111751Z 33012KT M01/M11 A3021 RMK A01 T10071110  RH  046%=      5-min Rain = 0
KAI1 111752Z 34011KT M01/M11 A3021 RMK A01 T10091112  RH  046%=      5-min Rain = 0
KAI1 111753Z 35011KT M01/M11 A3021 RMK A01 T10051107  RH  046%=      5-min Rain = 0
KAI1 111754Z 35012KT M00/M11 A3021 RMK A01 T10021106  RH  045%=      5-min Rain = 0
KAI1 111755Z 35014KT M00/M11 A3021 RMK A01 T10011108  RH  044%=      5-min Rain = 0
KAI1 111756Z 35010KT M00/M11 A3021 RMK A01 T10031111  RH  044%=      5-min Rain = 0
KAI1 111757Z 33009KT M00/M11 A302 RMK A01 T10041110  RH  045%=      5-min Rain = 0
KAI1 111758Z 33010KT M00/M11 A302 RMK A01 T10021107  RH  045%=      5-min Rain = 0
KAI1 111759Z 33011KT 00/11 A302 RMK A01 T00-00-108  RH  044%=      5-min Rain = 0
KAI1 111800Z 34010KT M00/M11 A302 RMK A01 T10011109  RH  044%=      5-min Rain = 0
KAI1 111801Z 34011KT M00/M11 A302 RMK A01 T10021110  RH  044%=      5-min Rain = 0
KAI1 111802Z 34010KT M00/M11 A302 RMK A01 T10011109  RH  044%=      5-min Rain = 0
KAI1 111803Z 36009KT 00/11 A302 RMK A01 T00-00-108  RH  044%=      5-min Rain = 0
KAI1 111804Z 34012G17KT 00/M11 A302 RMK A01 T00011108  RH  044%=      5-min Rain = 0
KAI1 111805Z 34013KT 00/M11 A302 RMK A01 T00031107  RH  043%=      5-min Rain = 0
KAI1 111806Z 33012KT 00/M11 A302 RMK A01 T00041107  RH  043%=      5-min Rain = 0
KAI1 111807Z 34011KT 00/M11 A302 RMK A01 T00041109  RH  042%=      5-min Rain = 0
KAI1 111808Z 35011KT 01/M11 A302 RMK A01 T00051106  RH  043%=      5-min Rain = 0
KAI1 111809Z 34011KT 01/M11 A302 RMK A01 T00081106  RH  042%=      5-min Rain = 0
KAI1 111810Z 34011KT 01/M11 A302 RMK A01 T00081107  RH  042%=      5-min Rain = 0
KAI1 111811Z 33008KT 01/M11 A302 RMK A01 T00061110  RH  042%=      5-min Rain = 0
KAI1 111812Z 32007KT 01/M11 A302 RMK A01 T00051110  RH  042%=      5-min Rain = 0
KAI1 111813Z 00012KT 01/M11 A302 RMK A01 T00061106  RH  043%=      5-min Rain = 0
KAI1 111814Z 35013KT 01/M11 A302 RMK A01 T00081106  RH  042%=      5-min Rain = 0
KAI1 111815Z 00009KT 01/M11 A302 RMK A01 T00071108  RH  042%=      5-min Rain = 0
KAI1 111816Z 36006KT 01/M11 A3019 RMK A01 T00061109  RH  042%=      5-min Rain = 0
KAI1 111817Z 34011G16KT 01/M11 A3019 RMK A01 T00071106  RH  043%=      5-min Rain = 0
KAI1 111818Z 34014KT 01/M11 A3019 RMK A01 T00101106  RH  042%=      5-min Rain = 0
KAI1 111819Z 35012KT 01/M11 A3019 RMK A01 T00101108  RH  041%=      5-min Rain = 0
KAI1 111820Z 35011KT 01/M11 A3019 RMK A01 T00111108  RH  041%=      5-min Rain = 0
KAI1 111821Z 00011KT 01/M11 A3019 RMK A01 T00101110  RH  040%=      5-min Rain = 0
KAI1 111822Z 01008KT 01/M11 A3019 RMK A01 T00101109  RH  040%=      5-min Rain = 0
KAI1 111823Z 35010KT 01/M11 A3019 RMK A01 T00131107  RH  040%=      5-min Rain = 0
KAI1 111824Z 35013KT 01/M11 A3019 RMK A01 T00131108  RH  040%=      5-min Rain = 0
KAI1 111825Z 35009KT 01/M11 A3019 RMK A01 T00131109  RH  040%=      5-min Rain = 0
KAI1 111826Z 35011KT 01/M11 A3019 RMK A01 T00121109  RH  040%=      5-min Rain = 0
KAI1 111827Z 36011KT 01/M11 A3019 RMK A01 T00131107  RH  040%=      5-min Rain = 0
KAI1 111828Z 35009KT 01/M11 A3019 RMK A01 T00141108  RH  040%=      5-min Rain = 0
KAI1 111829Z 34009KT 01/M11 A3019 RMK A01 T00141109  RH  039%=      5-min Rain = 0
KAI1 111830Z 33010KT 01/M11 A3019 RMK A01 T00141110  RH  039%=      5-min Rain = 0
KAI1 111831Z 35010KT 01/M11 A3019 RMK A01 T00141109  RH  039%=      5-min Rain = 0
KAI1 111832Z 35006KT 02/M11 A3019 RMK A01 T00151108  RH  039%=      5-min Rain = 0
KAI1 111833Z 36009KT 02/M11 A3019 RMK A01 T00161109  RH  039%=      5-min Rain = 0
KAI1 111834Z 01011KT 02/M11 A3019 RMK A01 T00161110  RH  039%=      5-min Rain = 0
KAI1 111835Z 36013KT 02/M11 A3019 RMK A01 T00151111  RH  038%=      5-min Rain = 0
KAI1 111836Z 36011KT 02/M11 A3018 RMK A01 T00171111  RH  038%=      5-min Rain = 0
KAI1 111837Z 36011KT 02/M11 A3018 RMK A01 T00191109  RH  038%=      5-min Rain = 0
KAI1 111838Z 01008KT 02/M11 A3019 RMK A01 T00191110  RH  038%=      5-min Rain = 0
KAI1 111839Z 00010KT 02/M11 A3019 RMK A01 T00181110  RH  038%=      5-min Rain = 0
KAI1 111840Z 00011KT 02/M11 A3019 RMK A01 T00181112  RH  038%=      5-min Rain = 0
KAI1 111841Z 35013KT 02/M11 A3018 RMK A01 T00181113  RH  037%=      5-min Rain = 0
KAI1 111842Z 35011KT 02/M11 A3018 RMK A01 T00181112  RH  037%=      5-min Rain = 0
KAI1 111843Z 36010KT 02/M11 A3018 RMK A01 T00191111  RH  038%=      5-min Rain = 0
KAI1 111844Z 01011KT 02/M11 A3018 RMK A01 T00211109  RH  037%=      5-min Rain = 0
KAI1 111845Z 01010KT 02/M11 A3018 RMK A01 T00201112  RH  037%=      5-min Rain = 0
KAI1 111846Z 02011KT 02/M11 A3018 RMK A01 T00191112  RH  037%=      5-min Rain = 0
KAI1 111847Z 36009KT 02/M11 A3018 RMK A01 T00191112  RH  037%=      5-min Rain = 0
KAI1 111848Z 35008KT 02/M11 A3018 RMK A01 T00191111  RH  038%=      5-min Rain = 0
KAI1 111849Z 01008KT 02/M11 A3018 RMK A01 T00201110  RH  038%=      5-min Rain = 0
KAI1 111850Z 00010KT 02/M11 A3018 RMK A01 T00221108  RH  038%=      5-min Rain = 0
KAI1 111851Z 01011KT 03/M11 A3018 RMK A01 T00251110  RH  036%=      5-min Rain = 0
KAI1 111852Z 01009KT 02/M11 A3018 RMK A01 T00241114  RH  035%=      5-min Rain = 0
KAI1 111853Z 36007KT 02/M12 A3017 RMK A01 T00231115  RH  035%=      5-min Rain = 0
KAI1 111854Z 01010KT 02/M11 A3017 RMK A01 T00241113  RH  036%=      5-min Rain = 0
KAI1 111855Z 01010KT 03/M11 A3018 RMK A01 T00261110  RH  036%=      5-min Rain = 0
KAI1 111856Z 01012KT 03/M11 A3017 RMK A01 T00291109  RH  036%=      5-min Rain = 0
KAI1 111857Z 35011KT 03/M11 A3017 RMK A01 T00291111  RH  035%=      5-min Rain = 0
KAI1 111858Z 00010KT 03/M11 A3017 RMK A01 T00291111  RH  035%=      5-min Rain = 0
KAI1 111859Z 00006KT 03/M11 A3017 RMK A01 T00281112  RH  035%=      5-min Rain = 0
KAI1 111900Z 01008KT 03/M11 A3017 RMK A01 T00271112  RH  035%=      5-min Rain = 0
KAI1 111901Z 02006KT 03/M11 A3017 RMK A01 T00271114  RH  035%=      5-min Rain = 0
KAI1 111902Z 00007KT 03/M11 A3017 RMK A01 T00271113  RH  035%=      5-min Rain = 0
KAI1 111903Z 02012KT 03/M12 A3017 RMK A01 T00291115  RH  034%=      5-min Rain = 0
KAI1 111904Z 01009KT 03/M12 A3016 RMK A01 T00321115  RH  033%=      5-min Rain = 0
KAI1 111905Z 00012KT 04/M11 A3016 RMK A01 T00361113  RH  033%=      5-min Rain = 0
KAI1 111906Z 36011KT 04/M12 A3016 RMK A01 T00351116  RH  032%=      5-min Rain = 0
KAI1 111907Z 35010KT 03/M12 A3016 RMK A01 T00321119  RH  032%=      5-min Rain = 0
KAI1 111908Z 36007KT 03/M12 A3016 RMK A01 T00321116  RH  033%=      5-min Rain = 0
KAI1 111909Z 01006KT 03/M12 A3016 RMK A01 T00321117  RH  033%=      5-min Rain = 0
KAI1 111910Z 35005KT 03/M12 A3016 RMK A01 T00301118  RH  033%=      5-min Rain = 0
KAI1 111911Z 01006KT 03/M12 A3016 RMK A01 T00301118  RH  033%=      5-min Rain = 0
KAI1 111912Z 01010KT 03/M12 A3016 RMK A01 T00311116  RH  033%=      5-min Rain = 0
KAI1 111913Z 02010KT 04/M11 A3016 RMK A01 T00351114  RH  033%=      5-min Rain = 0
KAI1 111914Z 01008KT 04/M12 A3016 RMK A01 T00351117  RH  032%=      5-min Rain = 0
KAI1 111915Z 02007KT 03/M12 A3016 RMK A01 T00331120  RH  031%=      5-min Rain = 0
KAI1 111916Z 36005KT 03/M12 A3016 RMK A01 T00311123  RH  031%=      5-min Rain = 0
KAI1 111917Z 36007KT 03/M12 A3016 RMK A01 T00301123  RH  031%=      5-min Rain = 0
KAI1 111918Z 35012KT 03/M12 A3016 RMK A01 T00311120  RH  032%=      5-min Rain = 0
KAI1 111919Z 35010KT 04/M12 A3016 RMK A01 T00351118  RH  032%=      5-min Rain = 0
KAI1 111920Z 34009KT 04/M12 A3016 RMK A01 T00361120  RH  031%=      5-min Rain = 0
KAI1 111921Z 34008KT 04/M12 A3016 RMK A01 T00361121  RH  031%=      5-min Rain = 0
KAI1 111922Z 33009KT 04/M12 A3016 RMK A01 T00361119  RH  031%=      5-min Rain = 0
KAI1 111923Z 32008KT 04/M12 A3016 RMK A01 T00371119  RH  031%=      5-min Rain = 0
KAI1 111924Z 35007KT 04/M12 A3016 RMK A01 T00361120  RH  031%=      5-min Rain = 0
KAI1 111925Z 03008KT 04/M12 A3016 RMK A01 T00361119  RH  031%=      5-min Rain = 0
KAI1 111926Z 03009KT 04/M12 A3016 RMK A01 T00351120  RH  031%=      5-min Rain = 0
KAI1 111927Z 02006KT 03/M12 A3016 RMK A01 T00331121  RH  031%=      5-min Rain = 0
KAI1 111928Z 03008KT 03/M12 A3016 RMK A01 T00341117  RH  032%=      5-min Rain = 0
KAI1 111929Z 02011KT 04/M12 A3016 RMK A01 T00391115  RH  032%=      5-min Rain = 0
KAI1 111930Z 01010KT 04/M12 A3016 RMK A01 T00401119  RH  030%=      5-min Rain = 0
KAI1 111931Z 00008KT 04/M12 A3016 RMK A01 T00411119  RH  030%=      5-min Rain = 0
KAI1 111932Z 03009KT 04/M12 A3015 RMK A01 T00411120  RH  030%=      5-min Rain = 0
KAI1 111933Z 03006KT 04/M12 A3015 RMK A01 T00401120  RH  030%=      5-min Rain = 0
KAI1 111934Z 34008KT 04/M12 A3015 RMK A01 T00421117  RH  030%=      5-min Rain = 0
KAI1 111935Z 35005KT 04/M12 A3015 RMK A01 T00421119  RH  030%=      5-min Rain = 0
KAI1 111936Z 04005KT 04/M12 A3015 RMK A01 T00411120  RH  030%=      5-min Rain = 0
KAI1 111937Z 02007KT 04/M12 A3015 RMK A01 T00421117  RH  030%=      5-min Rain = 0
KAI1 111938Z 35009KT 04/M12 A3015 RMK A01 T00431118  RH  030%=      5-min Rain = 0
KAI1 111939Z 35010KT 04/M12 A3015 RMK A01 T00441120  RH  029%=      5-min Rain = 0
KAI1 111940Z 34010KT 05/M12 A3015 RMK A01 T00481115  RH  030%=      5-min Rain = 0
KAI1 111941Z 33010KT 05/M12 A3015 RMK A01 T00481120  RH  028%=      5-min Rain = 0
KAI1 111942Z 35009KT 05/M12 A3015 RMK A01 T00461121  RH  029%=      5-min Rain = 0
KAI1 111943Z 36008KT 05/M12 A3015 RMK A01 T00481121  RH  028%=      5-min Rain = 0
KAI1 111944Z 01008KT 05/M13 A3015 RMK A01 T00451125  RH  028%=      5-min Rain = 0
KAI1 111945Z 01006KT 05/M12 A3015 RMK A01 T00481120  RH  028%=      5-min Rain = 0
KAI1 111946Z 36006KT 05/M12 A3014 RMK A01 T00511121  RH  028%=      5-min Rain = 0
KAI1 111947Z 35008KT 05/M13 A3014 RMK A01 T00491125  RH  027%=      5-min Rain = 0
KAI1 111948Z 01008KT 05/M13 A3014 RMK A01 T00471125  RH  027%=      5-min Rain = 0
KAI1 111949Z 04010KT 05/M12 A3014 RMK A01 T00471124  RH  028%=      5-min Rain = 0
KAI1 111950Z 05009KT 05/M13 A3014 RMK A01 T00471126  RH  027%=      5-min Rain = 0
KAI1 111951Z 03008KT 05/M13 A3014 RMK A01 T00451126  RH  028%=      5-min Rain = 0
KAI1 111952Z 00011KT 05/M12 A3014 RMK A01 T00491121  RH  028%=      5-min Rain = 0
KAI1 111953Z 36012KT 05/M13 A3014 RMK A01 T00511125  RH  027%=      5-min Rain = 0
KAI1 111954Z 00008KT 05/M13 A3014 RMK A01 T00491131  RH  026%=      5-min Rain = 0
KAI1 111955Z 00008KT 05/M13 A3014 RMK A01 T00461133  RH  026%=      5-min Rain = 0
KAI1 111956Z 35006KT 05/M13 A3014 RMK A01 T00451133  RH  026%=      5-min Rain = 0
KAI1 111957Z 00007KT 04/M13 A3014 RMK A01 T00441133  RH  026%=      5-min Rain = 0
KAI1 111958Z 01005KT 04/M13 A3014 RMK A01 T00441133  RH  026%=      5-min Rain = 0
KAI1 111959Z 00006KT 04/M13 A3013 RMK A01 T00441132  RH  026%=      5-min Rain = 0
KAI1 112000Z 36007KT 05/M13 A3013 RMK A01 T00461132  RH  026%=      5-min Rain = 0
KAI1 112001Z 03008KT 05/M13 A3013 RMK A01 T00461134  RH  026%=      5-min Rain = 0
KAI1 112002Z 03007KT 05/M13 A3013 RMK A01 T00461134  RH  026%=      5-min Rain = 0
KAI1 112003Z 03006KT 05/M13 A3013 RMK A01 T00471134  RH  026%=      5-min Rain = 0
KAI1 112004Z 04008KT 05/M13 A3013 RMK A01 T00471133  RH  026%=      5-min Rain = 0
KAI1 112005Z 04009KT 05/M13 A3013 RMK A01 T00491129  RH  026%=      5-min Rain = 0
KAI1 112006Z 02007G12KT 05/M13 A3013 RMK A01 T00491129  RH  026%=      5-min Rain = 0
KAI1 112007Z 04007KT 05/M13 A3013 RMK A01 T00471129  RH  027%=      5-min Rain = 0
KAI1 112008Z 04008KT 05/M13 A3013 RMK A01 T00461130  RH  027%=      5-min Rain = 0
KAI1 112009Z 06008KT 05/M13 A3013 RMK A01 T00461130  RH  027%=      5-min Rain = 0
KAI1 112010Z 05005KT 05/M13 A3013 RMK A01 T00461132  RH  026%=      5-min Rain = 0
KAI1 112011Z 03006KT 05/M13 A3013 RMK A01 T00461130  RH  027%=      5-min Rain = 0
KAI1 112012Z 02006KT 05/M13 A3013 RMK A01 T00481130  RH  026%=      5-min Rain = 0
KAI1 112013Z 03004KT 05/M13 A3013 RMK A01 T00481131  RH  026%=      5-min Rain = 0
KAI1 112014Z 04007KT 05/M13 A3013 RMK A01 T00481131  RH  026%=      5-min Rain = 0
KAI1 112015Z 03010KT 05/M13 A3013 RMK A01 T00541125  RH  026%=      5-min Rain = 0
KAI1 112016Z 04007KT 06/M13 A3013 RMK A01 T00551131  RH  025%=      5-min Rain = 0
KAI1 112017Z 05004KT 05/M13 A3013 RMK A01 T00511134  RH  025%=      5-min Rain = 0
KAI1 112018Z 05005KT 05/M13 A3013 RMK A01 T00481134  RH  025%=      5-min Rain = 0
KAI1 112019Z 03008KT 05/M13 A3013 RMK A01 T00501129  RH  026%=      5-min Rain = 0
KAI1 112020Z 01007KT 05/M13 A3013 RMK A01 T00531130  RH  025%=      5-min Rain = 0
KAI1 112021Z 02008KT 05/M13 A3013 RMK A01 T00501132  RH  025%=      5-min Rain = 0
KAI1 112022Z 36006KT 05/M13 A3013 RMK A01 T00501130  RH  026%=      5-min Rain = 0
KAI1 112023Z 01006KT 05/M13 A3013 RMK A01 T00511129  RH  026%=      5-min Rain = 0
KAI1 112024Z 01006KT 05/M13 A3013 RMK A01 T00511131  RH  026%=      5-min Rain = 0
KAI1 112025Z 35005KT 05/M13 A3012 RMK A01 T00471134  RH  026%=      5-min Rain = 0
KAI1 112026Z 36004KT 05/M13 A3012 RMK A01 T00471131  RH  026%=      5-min Rain = 0
KAI1 112027Z 03004KT 05/M13 A3012 RMK A01 T00481130  RH  026%=      5-min Rain = 0
KAI1 112028Z 05004KT 05/M13 A3012 RMK A01 T00481130  RH  026%=      5-min Rain = 0
KAI1 112029Z 02006KT 05/M13 A3012 RMK A01 T00501127  RH  027%=      5-min Rain = 0
KAI1 112030Z 02010KT 05/M13 A3012 RMK A01 T00531125  RH  026%=      5-min Rain = 0
KAI1 112031Z 02010KT 06/M12 A3012 RMK A01 T00561124  RH  026%=      5-min Rain = 0
KAI1 112032Z 02008KT 06/M13 A3012 RMK A01 T00561127  RH  025%=      5-min Rain = 0
KAI1 112033Z 01006KT 06/M13 A3012 RMK A01 T00561127  RH  026%=      5-min Rain = 0
KAI1 112034Z 00004KT 05/M13 A3012 RMK A01 T00541130  RH  025%=      5-min Rain = 0
KAI1 112035Z 00001KT 05/M13 A3012 RMK A01 T00521131  RH  025%=      5-min Rain = 0
KAI1 112036Z 01002KT 05/M13 A3012 RMK A01 T00521130  RH  025%=      5-min Rain = 0
KAI1 112037Z 04004KT 05/M13 A3012 RMK A01 T00531129  RH  026%=      5-min Rain = 0
KAI1 112038Z 04009KT 06/M13 A3012 RMK A01 T00571128  RH  025%=      5-min Rain = 0
KAI1 112039Z 02007KT 06/M13 A3012 RMK A01 T00571134  RH  024%=      5-min Rain = 0
KAI1 112040Z 02006G11KT 06/M14 A3012 RMK A01 T00551138  RH  024%=      5-min Rain = 0
KAI1 112041Z 02007KT 05/M14 A3012 RMK A01 T00521141  RH  023%=      5-min Rain = 0
KAI1 112042Z 03006KT 05/M14 A3012 RMK A01 T00521139  RH  024%=      5-min Rain = 0
KAI1 112043Z 02007KT 05/M14 A3012 RMK A01 T00521140  RH  024%=      5-min Rain = 0
KAI1 112044Z 04010KT 06/M14 A3012 RMK A01 T00561136  RH  024%=      5-min Rain = 0
KAI1 112045Z 02009KT 06/M14 A3012 RMK A01 T00601137  RH  023%=      5-min Rain = 0
KAI1 112046Z 01009KT 06/M14 A3012 RMK A01 T00591142  RH  022%=      5-min Rain = 0
KAI1 112047Z 02007KT 06/M14 A3012 RMK A01 T00581144  RH  022%=      5-min Rain = 0
KAI1 112048Z 02006KT 06/M14 A3012 RMK A01 T00571144  RH  022%=      5-min Rain = 0
KAI1 112049Z 04007KT 06/M14 A3012 RMK A01 T00571144  RH  022%=      5-min Rain = 0
KAI1 112050Z 03009KT 06/M14 A3012 RMK A01 T00561143  RH  022%=      5-min Rain = 0
KAI1 112051Z 01006KT 06/M14 A3012 RMK A01 T00551143  RH  022%=      5-min Rain = 0
KAI1 112052Z 01005KT 05/M14 A3012 RMK A01 T00541144  RH  022%=      5-min Rain = 0
KAI1 112053Z 03001KT 05/M15 A3012 RMK A01 T00531145  RH  022%=      5-min Rain = 0
KAI1 112054Z 36004KT 05/M14 A3012 RMK A01 T00541143  RH  023%=      5-min Rain = 0
KAI1 112055Z 35006KT 06/M14 A3012 RMK A01 T00571137  RH  023%=      5-min Rain = 0
KAI1 112056Z 34006KT 06/M14 A3012 RMK A01 T00591139  RH  023%=      5-min Rain = 0
KAI1 112057Z 34006KT 06/M14 A3012 RMK A01 T00581139  RH  023%=      5-min Rain = 0
KAI1 112058Z 36006KT 06/M14 A3012 RMK A01 T00591138  RH  023%=      5-min Rain = 0
KAI1 112059Z 35006KT 06/M14 A3012 RMK A01 T00601139  RH  022%=      5-min Rain = 0
KAI1 112100Z 35007KT 06/M14 A3012 RMK A01 T00591143  RH  022%=      5-min Rain = 0
KAI1 112101Z 03008KT 06/M14 A3012 RMK A01 T00601140  RH  022%=      5-min Rain = 0
KAI1 112102Z 01007KT 06/M14 A3012 RMK A01 T00631138  RH  022%=      5-min Rain = 0
KAI1 112103Z 01008KT 06/M14 A3012 RMK A01 T00631140  RH  022%=      5-min Rain = 0
KAI1 112104Z 01006KT 06/M14 A3012 RMK A01 T00601144  RH  022%=      5-min Rain = 0
KAI1 112105Z 36004KT 06/M14 A3012 RMK A01 T00591142  RH  022%=      5-min Rain = 0
KAI1 112106Z 36005KT 06/M14 A3012 RMK A01 T00601142  RH  022%=      5-min Rain = 0
KAI1 112107Z 02007KT 06/M14 A3012 RMK A01 T00601143  RH  022%=      5-min Rain = 0
KAI1 112108Z 03007KT 06/M14 A3012 RMK A01 T00601143  RH  022%=      5-min Rain = 0
KAI1 112109Z 05009KT 06/M14 A3012 RMK A01 T00601144  RH  022%=      5-min Rain = 0
KAI1 112110Z 05008KT 06/M15 A3012 RMK A01 T00581145  RH  021%=      5-min Rain = 0
KAI1 112111Z 07005KT 06/M14 A3012 RMK A01 T00571143  RH  022%=      5-min Rain = 0
KAI1 112112Z 09004KT 06/M14 A3012 RMK A01 T00571141  RH  022%=      5-min Rain = 0
KAI1 112113Z 06004KT 06/M14 A3012 RMK A01 T00591140  RH  022%=      5-min Rain = 0
KAI1 112114Z 02006KT 06/M14 A3012 RMK A01 T00601139  RH  022%=      5-min Rain = 0
KAI1 112115Z 00006KT 06/M14 A3012 RMK A01 T00611140  RH  022%=      5-min Rain = 0
KAI1 112116Z 34005KT 06/M14 A3012 RMK A01 T00591143  RH  022%=      5-min Rain = 0
KAI1 112117Z 35004KT 06/M14 A3012 RMK A01 T00571144  RH  022%=      5-min Rain = 0
KAI1 112118Z 05005KT 06/M14 A3012 RMK A01 T00581140  RH  023%=      5-min Rain = 0
KAI1 112119Z 04006KT 06/M14 A3012 RMK A01 T00601141  RH  022%=      5-min Rain = 0
KAI1 112120Z 03006KT 06/M14 A3012 RMK A01 T00601143  RH  022%=      5-min Rain = 0
KAI1 112121Z 03007KT 06/M14 A3012 RMK A01 T00611142  RH  022%=      5-min Rain = 0
KAI1 112122Z 03009KT 06/M14 A3012 RMK A01 T00631139  RH  022%=      5-min Rain = 0
KAI1 112123Z 01006KT 07/M14 A3012 RMK A01 T00651139  RH  022%=      5-min Rain = 0
KAI1 112124Z 01007KT 06/M14 A3012 RMK A01 T00641142  RH  021%=      5-min Rain = 0
KAI1 112125Z 36008KT 06/M14 A3012 RMK A01 T00621143  RH  021%=      5-min Rain = 0
KAI1 112126Z 35007KT 06/M14 A3012 RMK A01 T00611144  RH  021%=      5-min Rain = 0
KAI1 112127Z 02004KT 06/M14 A3012 RMK A01 T00591144  RH  022%=      5-min Rain = 0
KAI1 112128Z 00003KT 06/M14 A3012 RMK A01 T00601142  RH  022%=      5-min Rain = 0
KAI1 112129Z 35004KT 06/M14 A3012 RMK A01 T00621139  RH  022%=      5-min Rain = 0
KAI1 112130Z 34004KT 06/M14 A3012 RMK A01 T00621142  RH  022%=      5-min Rain = 0
KAI1 112131Z 35003KT 06/M14 A3012 RMK A01 T00621142  RH  022%=      5-min Rain = 0
KAI1 112132Z 32003KT 06/M14 A3012 RMK A01 T00621142  RH  022%=      5-min Rain = 0
KAI1 112133Z 34001KT 06/M14 A3012 RMK A01 T00611143  RH  022%=      5-min Rain = 0
KAI1 112134Z 06003KT 06/M14 A3012 RMK A01 T00611141  RH  022%=      5-min Rain = 0
KAI1 112135Z 07007KT 06/M14 A3012 RMK A01 T00641139  RH  022%=      5-min Rain = 0
KAI1 112136Z 07009KT 07/M14 A3012 RMK A01 T00651140  RH  022%=      5-min Rain = 0
KAI1 112137Z 02008KT 07/M14 A3012 RMK A01 T00651141  RH  021%=      5-min Rain = 0
KAI1 112138Z 01007KT 06/M14 A3012 RMK A01 T00641142  RH  021%=      5-min Rain = 0
KAI1 112139Z 02006KT 06/M14 A3012 RMK A01 T00611144  RH  021%=      5-min Rain = 0
KAI1 112140Z 01007KT 06/M14 A3012 RMK A01 T00611142  RH  022%=      5-min Rain = 0
KAI1 112141Z 02007KT 06/M14 A3012 RMK A01 T00611142  RH  022%=      5-min Rain = 0
KAI1 112142Z 03006KT 06/M14 A3012 RMK A01 T00601142  RH  022%=      5-min Rain = 0
KAI1 112143Z 03005KT 06/M14 A3012 RMK A01 T00611141  RH  022%=      5-min Rain = 0
KAI1 112144Z 02004KT 06/M14 A3012 RMK A01 T00611141  RH  022%=      5-min Rain = 0
KAI1 112145Z 02007KT 06/M14 A3012 RMK A01 T00631139  RH  022%=      5-min Rain = 0
KAI1 112146Z 02006KT 07/M14 A3012 RMK A01 T00651139  RH  022%=      5-min Rain = 0
KAI1 112147Z 04006KT 07/M14 A3012 RMK A01 T00651142  RH  021%=      5-min Rain = 0
KAI1 112148Z 04003KT 06/M14 A3012 RMK A01 T00631144  RH  021%=      5-min Rain = 0
KAI1 112149Z 05005KT 06/M14 A3012 RMK A01 T00611142  RH  022%=      5-min Rain = 0
KAI1 112150Z 06006KT 06/M14 A3012 RMK A01 T00621142  RH  022%=      5-min Rain = 0
KAI1 112151Z 05005KT 06/M14 A3012 RMK A01 T00621142  RH  022%=      5-min Rain = 0
KAI1 112152Z 04003KT 06/M14 A3012 RMK A01 T00611144  RH  021%=      5-min Rain = 0
KAI1 112153Z 02002KT 06/M14 A3012 RMK A01 T00611143  RH  021%=      5-min Rain = 0
KAI1 112154Z 05002KT 06/M14 A3012 RMK A01 T00621143  RH  021%=      5-min Rain = 0
KAI1 112155Z 01001KT 06/M15 A3012 RMK A01 T00621145  RH  021%=      5-min Rain = 0
KAI1 112156Z 02000KT 06/M14 A3012 RMK A01 T00621144  RH  021%=      5-min Rain = 0
KAI1 112157Z 07001KT 06/M14 A3012 RMK A01 T00621144  RH  021%=      5-min Rain = 0
KAI1 112158Z 04005KT 06/M14 A3012 RMK A01 T00631143  RH  021%=      5-min Rain = 0
KAI1 112159Z 04005KT 06/M14 A3012 RMK A01 T00631144  RH  021%=      5-min Rain = 0
KAI1 112200Z 03005KT 06/M15 A3012 RMK A01 T00631145  RH  021%=      5-min Rain = 0
KAI1 112201Z 03004KT 06/M15 A3012 RMK A01 T00631145  RH  021%=      5-min Rain = 0
KAI1 112202Z 05005KT 06/M14 A3012 RMK A01 T00641140  RH  022%=      5-min Rain = 0
KAI1 112203Z 04004KT 06/M14 A3013 RMK A01 T00641144  RH  021%=      5-min Rain = 0
KAI1 112204Z 05006KT 06/M14 A3013 RMK A01 T00631144  RH  021%=      5-min Rain = 0
KAI1 112205Z 05005KT 06/M14 A3013 RMK A01 T00631143  RH  021%=      5-min Rain = 0
KAI1 112206Z 04006KT 06/M14 A3013 RMK A01 T00641142  RH  021%=      5-min Rain = 0
KAI1 112207Z 35004KT 07/M14 A3013 RMK A01 T00651142  RH  021%=      5-min Rain = 0
KAI1 112208Z 04006KT 07/M14 A3013 RMK A01 T00651143  RH  021%=      5-min Rain = 0
KAI1 112209Z 06004KT 07/M14 A3013 RMK A01 T00651144  RH  021%=      5-min Rain = 0
KAI1 112210Z 05005KT 06/M14 A3013 RMK A01 T00641143  RH  021%=      5-min Rain = 0
KAI1 112211Z 05005KT 06/M14 A3013 RMK A01 T00641144  RH  021%=      5-min Rain = 0
KAI1 112212Z 06005KT 06/M14 A3013 RMK A01 T00631143  RH  021%=      5-min Rain = 0
KAI1 112213Z 06003KT 06/M15 A3013 RMK A01 T00631145  RH  021%=      5-min Rain = 0
KAI1 112214Z 06001KT 06/M15 A3013 RMK A01 T00621145  RH  021%=      5-min Rain = 0
KAI1 112215Z 13000KT 06/M14 A3013 RMK A01 T00621144  RH  021%=      5-min Rain = 0
KAI1 112216Z 17000KT 06/M14 A3013 RMK A01 T00631142  RH  021%=      5-min Rain = 0
KAI1 112217Z 19001KT 07/M14 A3013 RMK A01 T00661141  RH  021%=      5-min Rain = 0
KAI1 112218Z 16000KT 07/M14 A3013 RMK A01 T00701140  RH  021%=      5-min Rain = 0
KAI1 112219Z 06001KT 07/M14 A3013 RMK A01 T00721141  RH  020%=      5-min Rain = 0
KAI1 112220Z 04002KT 07/M14 A3013 RMK A01 T00721143  RH  020%=      5-min Rain = 0
KAI1 112221Z 35007KT 07/M14 A3013 RMK A01 T00701143  RH  020%=      5-min Rain = 0
KAI1 112222Z 34005KT 07/M14 A3013 RMK A01 T00681143  RH  020%=      5-min Rain = 0
KAI1 112223Z 02006KT 07/M14 A3013 RMK A01 T00681143  RH  021%=      5-min Rain = 0
KAI1 112224Z 35007KT 07/M14 A3013 RMK A01 T00681143  RH  021%=      5-min Rain = 0
KAI1 112225Z 34005KT 07/M15 A3013 RMK A01 T00671146  RH  020%=      5-min Rain = 0
KAI1 112226Z 00004KT 07/M15 A3013 RMK A01 T00651147  RH  020%=      5-min Rain = 0
KAI1 112227Z 04006KT 07/M14 A3013 RMK A01 T00661144  RH  021%=      5-min Rain = 0
KAI1 112228Z 03006KT 07/M14 A3013 RMK A01 T00671143  RH  021%=      5-min Rain = 0
KAI1 112229Z 04006KT 07/M15 A3013 RMK A01 T00671145  RH  020%=      5-min Rain = 0
KAI1 112230Z 05003KT 07/M15 A3013 RMK A01 T00651147  RH  020%=      5-min Rain = 0
KAI1 112231Z 35002KT 06/M15 A3013 RMK A01 T00631148  RH  020%=      5-min Rain = 0
KAI1 112232Z 36003KT 06/M15 A3013 RMK A01 T00631145  RH  021%=      5-min Rain = 0
KAI1 112233Z 34005KT 07/M14 A3013 RMK A01 T00651142  RH  021%=      5-min Rain = 0
KAI1 112234Z 34001KT 07/M15 A3014 RMK A01 T00651145  RH  021%=      5-min Rain = 0
KAI1 112235Z 03002KT 07/M15 A3014 RMK A01 T00651145  RH  021%=      5-min Rain = 0
KAI1 112236Z 36004KT 07/M15 A3014 RMK A01 T00651145  RH  021%=      5-min Rain = 0
KAI1 112237Z 36004KT 07/M15 A3014 RMK A01 T00651145  RH  021%=      5-min Rain = 0
KAI1 112238Z 36005KT 07/M15 A3014 RMK A01 T00651145  RH  021%=      5-min Rain = 0
KAI1 112239Z 35002KT 06/M15 A3014 RMK A01 T00631147  RH  021%=      5-min Rain = 0
KAI1 112240Z 33003KT 06/M15 A3014 RMK A01 T00631146  RH  021%=      5-min Rain = 0
KAI1 112241Z 33004KT 06/M15 A3014 RMK A01 T00631145  RH  021%=      5-min Rain = 0
KAI1 112242Z 30003KT 06/M15 A3014 RMK A01 T00631146  RH  021%=      5-min Rain = 0
KAI1 112243Z 30003KT 06/M15 A3014 RMK A01 T00631145  RH  021%=      5-min Rain = 0
KAI1 112244Z 32002KT 06/M14 A3014 RMK A01 T00641144  RH  021%=      5-min Rain = 0
KAI1 112245Z 05002KT 07/M15 A3014 RMK A01 T00651145  RH  021%=      5-min Rain = 0
KAI1 112246Z 05004KT 07/M14 A3014 RMK A01 T00651144  RH  021%=      5-min Rain = 0
KAI1 112247Z 04003KT 07/M15 A3014 RMK A01 T00651145  RH  021%=      5-min Rain = 0
KAI1 112248Z 07001KT 07/M15 A3014 RMK A01 T00651145  RH  021%=      5-min Rain = 0
KAI1 112249Z 07002KT 06/M15 A3014 RMK A01 T00641146  RH  021%=      5-min Rain = 0
KAI1 112250Z 08002KT 06/M15 A3013 RMK A01 T00641146  RH  021%=      5-min Rain = 0
KAI1 112251Z 06001KT 06/M15 A3013 RMK A01 T00641146  RH  021%=      5-min Rain = 0
KAI1 112252Z 02001KT 06/M15 A3013 RMK A01 T00641145  RH  021%=      5-min Rain = 0
KAI1 112253Z 36002KT 07/M15 A3013 RMK A01 T00651146  RH  020%=      5-min Rain = 0
KAI1 112254Z 36002KT 07/M15 A3013 RMK A01 T00651146  RH  020%=      5-min Rain = 0
KAI1 112255Z 02002KT 07/M15 A3014 RMK A01 T00661145  RH  020%=      5-min Rain = 0
KAI1 112256Z 03002KT 07/M15 A3014 RMK A01 T00661146  RH  020%=      5-min Rain = 0
KAI1 112257Z 02005KT 07/M15 A3014 RMK A01 T00651146  RH  020%=      5-min Rain = 0
KAI1 112258Z 03006KT 07/M15 A3014 RMK A01 T00661146  RH  020%=      5-min Rain = 0
KAI1 112259Z 03006KT 07/M15 A3014 RMK A01 T00661146  RH  020%=      5-min Rain = 0
KAI1 112300Z 04007KT 07/M14 A3014 RMK A01 T00661144  RH  021%=      5-min Rain = 0
KAI1 112301Z 03008KT 07/M15 A3014 RMK A01 T00681145  RH  020%=      5-min Rain = 0
KAI1 112302Z 02006KT 07/M15 A3014 RMK A01 T00661147  RH  020%=      5-min Rain = 0
KAI1 112303Z 03006KT 06/M15 A3014 RMK A01 T00641147  RH  020%=      5-min Rain = 0
KAI1 112304Z 05007KT 07/M15 A3014 RMK A01 T00651145  RH  021%=      5-min Rain = 0
KAI1 112305Z 05005KT 07/M15 A3014 RMK A01 T00651145  RH  021%=      5-min Rain = 0
KAI1 112306Z 04005KT 07/M14 A3014 RMK A01 T00661144  RH  021%=      5-min Rain = 0
KAI1 112307Z 04006KT 07/M15 A3014 RMK A01 T00661145  RH  021%=      5-min Rain = 0
KAI1 112308Z 03006KT 07/M15 A3014 RMK A01 T00661145  RH  021%=      5-min Rain = 0
KAI1 112309Z 03006KT 07/M15 A3014 RMK A01 T00661145  RH  020%=      5-min Rain = 0
KAI1 112310Z 05005KT 07/M15 A3014 RMK A01 T00651147  RH  020%=      5-min Rain = 0
KAI1 112311Z 05004KT 06/M15 A3014 RMK A01 T00631148  RH  020%=      5-min Rain = 0
KAI1 112312Z 05005KT 06/M15 A3014 RMK A01 T00631147  RH  021%=      5-min Rain = 0
KAI1 112313Z 05007KT 06/M15 A3014 RMK A01 T00621147  RH  021%=      5-min Rain = 0
KAI1 112314Z 05006KT 06/M15 A3014 RMK A01 T00631146  RH  021%=      5-min Rain = 0
KAI1 112315Z 05007KT 06/M15 A3014 RMK A01 T00631146  RH  021%=      5-min Rain = 0
KAI1 112316Z 04006KT 06/M15 A3014 RMK A01 T00641145  RH  021%=      5-min Rain = 0
KAI1 112317Z 04005KT 06/M15 A3014 RMK A01 T00641146  RH  021%=      5-min Rain = 0
KAI1 112318Z 06002KT 06/M15 A3014 RMK A01 T00631148  RH  020%=      5-min Rain = 0
KAI1 112319Z 03002KT 06/M15 A3014 RMK A01 T00621146  RH  021%=      5-min Rain = 0
KAI1 112320Z 36003KT 06/M15 A3014 RMK A01 T00631145  RH  021%=      5-min Rain = 0
KAI1 112321Z 01003KT 06/M15 A3014 RMK A01 T00631146  RH  021%=      5-min Rain = 0
KAI1 112322Z 03005KT 06/M15 A3014 RMK A01 T00641146  RH  021%=      5-min Rain = 0
KAI1 112323Z 04005KT 06/M15 A3014 RMK A01 T00641147  RH  020%=      5-min Rain = 0
KAI1 112324Z 05005KT 06/M15 A3014 RMK A01 T00631148  RH  021%=      5-min Rain = 0
KAI1 112325Z 04004KT 06/M15 A3015 RMK A01 T00621147  RH  021%=      5-min Rain = 0
KAI1 112326Z 04003KT 06/M15 A3015 RMK A01 T00621148  RH  021%=      5-min Rain = 0
KAI1 112327Z 02003KT 06/M15 A3015 RMK A01 T00611148  RH  021%=      5-min Rain = 0
KAI1 112328Z 00002KT 06/M15 A3015 RMK A01 T00611148  RH  021%=      5-min Rain = 0
KAI1 112329Z 00001KT 06/M15 A3015 RMK A01 T00611148  RH  021%=      5-min Rain = 0
KAI1 112330Z 05001KT 06/M15 A3015 RMK A01 T00621147  RH  021%=      5-min Rain = 0
KAI1 112331Z 08001KT 06/M15 A3015 RMK A01 T00621147  RH  021%=      5-min Rain = 0
KAI1 112332Z 04003KT 06/M15 A3015 RMK A01 T00621148  RH  021%=      5-min Rain = 0
KAI1 112333Z 06004KT 06/M15 A3015 RMK A01 T00621147  RH  021%=      5-min Rain = 0
KAI1 112334Z 05004KT 06/M15 A3015 RMK A01 T00621147  RH  021%=      5-min Rain = 0
KAI1 112335Z 07002KT 06/M15 A3015 RMK A01 T00611148  RH  021%=      5-min Rain = 0
KAI1 112336Z 07001KT 06/M15 A3015 RMK A01 T00611147  RH  021%=      5-min Rain = 0
KAI1 112337Z 07002KT 06/M15 A3015 RMK A01 T00611148  RH  021%=      5-min Rain = 0
KAI1 112338Z 07001KT 06/M15 A3015 RMK A01 T00611148  RH  021%=      5-min Rain = 0
KAI1 112339Z 06003KT 06/M15 A3015 RMK A01 T00611147  RH  021%=      5-min Rain = 0
KAI1 112340Z 05004KT 06/M15 A3015 RMK A01 T00621146  RH  021%=      5-min Rain = 0
KAI1 112341Z 05004KT 06/M15 A3015 RMK A01 T00611147  RH  021%=      5-min Rain = 0
KAI1 112342Z 05003KT 06/M15 A3015 RMK A01 T00611147  RH  021%=      5-min Rain = 0
KAI1 112343Z 04002KT 06/M15 A3015 RMK A01 T00611147  RH  021%=      5-min Rain = 0
KAI1 112344Z 06002KT 06/M15 A3015 RMK A01 T00601146  RH  021%=      5-min Rain = 0
KAI1 112345Z 07002KT 06/M15 A3015 RMK A01 T00601146  RH  021%=      5-min Rain = 0
KAI1 112346Z 06002KT 06/M15 A3015 RMK A01 T00601146  RH  021%=      5-min Rain = 0
KAI1 112347Z 07003KT 06/M15 A3015 RMK A01 T00601145  RH  021%=      5-min Rain = 0
KAI1 112348Z 07003KT 06/M14 A3015 RMK A01 T00591143  RH  022%=      5-min Rain = 0
KAI1 112349Z 09003KT 06/M15 A3015 RMK A01 T00591145  RH  021%=      5-min Rain = 0
KAI1 112350Z 07005KT 06/M15 A3015 RMK A01 T00591147  RH  021%=      5-min Rain = 0
KAI1 112351Z 03004KT 06/M15 A3015 RMK A01 T00591146  RH  021%=      5-min Rain = 0
KAI1 112352Z 05004KT 06/M15 A3015 RMK A01 T00591146  RH  021%=      5-min Rain = 0
KAI1 112353Z 07004KT 06/M15 A3015 RMK A01 T00591146  RH  021%=      5-min Rain = 0
KAI1 112354Z 08005KT 06/M15 A3015 RMK A01 T00581147  RH  021%=      5-min Rain = 0
KAI1 112355Z 07005KT 06/M15 A3015 RMK A01 T00571148  RH  021%=      5-min Rain = 0
KAI1 112356Z 07005KT 06/M15 A3015 RMK A01 T00571147  RH  021%=      5-min Rain = 0
KAI1 112357Z 07005KT 06/M15 A3015 RMK A01 T00561147  RH  022%=      5-min Rain = 0
KAI1 112358Z 07005KT 06/M15 A3015 RMK A01 T00561148  RH  022%=      5-min Rain = 0
KAI1 112359Z 06004KT 06/M15 A3015 RMK A01 T00551148  RH  022%=      5-min Rain = 0
KAI1 120000Z 08004KT 06/M15 A3015 RMK A01 T00551147  RH  022%=      5-min Rain = 0
KAI1 120001Z 08004KT 05/M15 A3015 RMK A01 T00541149  RH  022%=      5-min Rain = 0
KAI1 120002Z 09004KT 05/M15 A3015 RMK A01 T00541150  RH  021%=      5-min Rain = 0
KAI1 120003Z 08005KT 05/M15 A3015 RMK A01 T00541150  RH  021%=      5-min Rain = 0
KAI1 120004Z 08005KT 05/M15 A3015 RMK A01 T00531150  RH  021%=      5-min Rain = 0
KAI1 120005Z 08005KT 05/M15 A3015 RMK A01 T00531151  RH  021%=      5-min Rain = 0
KAI1 120006Z 08004KT 05/M15 A3015 RMK A01 T00511152  RH  021%=      5-min Rain = 0
KAI1 120007Z 08004KT 05/M15 A3015 RMK A01 T00501152  RH  022%=      5-min Rain = 0
KAI1 120008Z 07004KT 05/M15 A3015 RMK A01 T00491152  RH  022%=      5-min Rain = 0
KAI1 120009Z 07004KT 05/M15 A3015 RMK A01 T00481153  RH  022%=      5-min Rain = 0
KAI1 120010Z 07004KT 05/M15 A3015 RMK A01 T00471154  RH  022%=      5-min Rain = 0
KAI1 120011Z 07004KT 05/M15 A3015 RMK A01 T00471154  RH  022%=      5-min Rain = 0
KAI1 120012Z 08004KT 05/M16 A3015 RMK A01 T00461155  RH  022%=      5-min Rain = 0
KAI1 120013Z 08005KT 05/M15 A3015 RMK A01 T00451154  RH  022%=      5-min Rain = 0
KAI1 120014Z 08005KT 05/M16 A3015 RMK A01 T00451155  RH  022%=      5-min Rain = 0
KAI1 120015Z 08005KT 04/M16 A3015 RMK A01 T00441155  RH  022%=      5-min Rain = 0
KAI1 120016Z 08005KT 04/M16 A3015 RMK A01 T00431156  RH  022%=      5-min Rain = 0
KAI1 120017Z 08006KT 04/M16 A3015 RMK A01 T00431155  RH  022%=      5-min Rain = 0
KAI1 120018Z 08006KT 04/M16 A3015 RMK A01 T00411156  RH  022%=      5-min Rain = 0
KAI1 120019Z 08006KT 04/M16 A3015 RMK A01 T00401157  RH  022%=      5-min Rain = 0
KAI1 120020Z 08005KT 04/M16 A3015 RMK A01 T00371158  RH  022%=      5-min Rain = 0
KAI1 120021Z 08005KT 04/M16 A3016 RMK A01 T00361158  RH  023%=      5-min Rain = 0
KAI1 120022Z 08005KT 03/M16 A3015 RMK A01 T00341158  RH  023%=      5-min Rain = 0
KAI1 120023Z 08005KT 03/M16 A3015 RMK A01 T00341157  RH  023%=      5-min Rain = 0
KAI1 120024Z 08005KT 03/M16 A3015 RMK A01 T00341157  RH  023%=      5-min Rain = 0
KAI1 120025Z 09005KT 03/M16 A3015 RMK A01 T00341158  RH  023%=      5-min Rain = 0
KAI1 120026Z 09004KT 03/M16 A3015 RMK A01 T00341157  RH  023%=      5-min Rain = 0
KAI1 120027Z 09004KT 03/M16 A3016 RMK A01 T00341156  RH  023%=      5-min Rain = 0
KAI1 120028Z 09004KT 03/M15 A3016 RMK A01 T00341154  RH  024%=      5-min Rain = 0
KAI1 120029Z 09004KT 03/M15 A3016 RMK A01 T00341153  RH  024%=      5-min Rain = 0
KAI1 120030Z 09005KT 03/M15 A3016 RMK A01 T00341152  RH  024%=      5-min Rain = 0
KAI1 120031Z 09005KT 03/M15 A3016 RMK A01 T00341152  RH  024%=      5-min Rain = 0
KAI1 120032Z 10004KT 03/M15 A3016 RMK A01 T00341151  RH  024%=      5-min Rain = 0
KAI1 120033Z 10005KT 03/M15 A3016 RMK A01 T00341152  RH  024%=      5-min Rain = 0
KAI1 120034Z 10005KT 03/M15 A3016 RMK A01 T00331152  RH  024%=      5-min Rain = 0
KAI1 120035Z 10005KT 03/M15 A3016 RMK A01 T00331154  RH  024%=      5-min Rain = 0
KAI1 120036Z 10005KT 03/M15 A3016 RMK A01 T00321154  RH  024%=      5-min Rain = 0
KAI1 120037Z 10006KT 03/M16 A3016 RMK A01 T00311156  RH  024%=      5-min Rain = 0
KAI1 120038Z 10006KT 03/M16 A3016 RMK A01 T00301155  RH  024%=      5-min Rain = 0
KAI1 120039Z 10006KT 03/M15 A3016 RMK A01 T00301154  RH  024%=      5-min Rain = 0
KAI1 120040Z 10006KT 03/M15 A3016 RMK A01 T00291154  RH  025%=      5-min Rain = 0
KAI1 120041Z 10007KT 03/M16 A3016 RMK A01 T00291155  RH  025%=      5-min Rain = 0
KAI1 120042Z 10007KT 03/M16 A3016 RMK A01 T00281156  RH  024%=      5-min Rain = 0
KAI1 120043Z 10007KT 03/M16 A3016 RMK A01 T00261157  RH  024%=      5-min Rain = 0
KAI1 120044Z 10007KT 02/M16 A3016 RMK A01 T00241159  RH  024%=      5-min Rain = 0
KAI1 120045Z 10007KT 02/M16 A3016 RMK A01 T00221161  RH  024%=      5-min Rain = 0
KAI1 120046Z 10007KT 02/M16 A3016 RMK A01 T00191163  RH  024%=      5-min Rain = 0
KAI1 120047Z 10006KT 02/M16 A3016 RMK A01 T00181163  RH  025%=      5-min Rain = 0
KAI1 120048Z 11007KT 02/M16 A3016 RMK A01 T00171162  RH  025%=      5-min Rain = 0
KAI1 120049Z 11006KT 02/M16 A3016 RMK A01 T00171160  RH  025%=      5-min Rain = 0
KAI1 120050Z 11006KT 02/M16 A3016 RMK A01 T00171160  RH  026%=      5-min Rain = 0
KAI1 120051Z 11006KT 02/M16 A3016 RMK A01 T00171159  RH  026%=      5-min Rain = 0
KAI1 120052Z 11007KT 02/M16 A3016 RMK A01 T00181159  RH  026%=      5-min Rain = 0
KAI1 120053Z 11007KT 02/M16 A3016 RMK A01 T00181159  RH  026%=      5-min Rain = 0
KAI1 120054Z 11007KT 02/M16 A3016 RMK A01 T00181159  RH  025%=      5-min Rain = 0
KAI1 120055Z 11007KT 02/M16 A3016 RMK A01 T00191159  RH  025%=      5-min Rain = 0
KAI1 120056Z 11007KT 02/M16 A3016 RMK A01 T00191160  RH  025%=      5-min Rain = 0
KAI1 120057Z 11007KT 02/M16 A3017 RMK A01 T00181162  RH  025%=      5-min Rain = 0
KAI1 120058Z 11008KT 02/M16 A3017 RMK A01 T00171164  RH  025%=      5-min Rain = 0
KAI1 120059Z 11007KT 02/M17 A3017 RMK A01 T00151166  RH  025%=      5-min Rain = 0
KAI1 120100Z 11007KT 01/M17 A3017 RMK A01 T00141167  RH  024%=      5-min Rain = 0
KAI1 120101Z 11007KT 01/M17 A3017 RMK A01 T00131168  RH  025%=      5-min Rain = 0
KAI1 120102Z 11007KT 01/M17 A3017 RMK A01 T00121169  RH  025%=      5-min Rain = 0
KAI1 120103Z 12007KT 01/M17 A3017 RMK A01 T00111169  RH  025%=      5-min Rain = 0
KAI1 120104Z 12007KT 01/M17 A3017 RMK A01 T00101169  RH  025%=      5-min Rain = 0
KAI1 120105Z 12007KT 01/M17 A3017 RMK A01 T00101170  RH  025%=      5-min Rain = 0
KAI1 120106Z 12007KT 01/M17 A3017 RMK A01 T00091171  RH  025%=      5-min Rain = 0
KAI1 120107Z 12007KT 01/M17 A3017 RMK A01 T00091171  RH  025%=      5-min Rain = 0
KAI1 120108Z 12007KT 01/M17 A3017 RMK A01 T00091171  RH  025%=      5-min Rain = 0
KAI1 120109Z 12006KT 01/M17 A3017 RMK A01 T00091171  RH  025%=      5-min Rain = 0
KAI1 120110Z 12006KT 01/M17 A3017 RMK A01 T00081171  RH  025%=      5-min Rain = 0
KAI1 120111Z 12007KT 01/M17 A3017 RMK A01 T00081170  RH  025%=      5-min Rain = 0
KAI1 120112Z 12007KT 01/M17 A3017 RMK A01 T00081169  RH  025%=      5-min Rain = 0
KAI1 120113Z 12007KT 01/M17 A3017 RMK A01 T00091168  RH  025%=      5-min Rain = 0
KAI1 120114Z 12007KT 01/M17 A3017 RMK A01 T00091167  RH  025%=      5-min Rain = 0
KAI1 120115Z 12007KT 01/M17 A3017 RMK A01 T00101167  RH  025%=      5-min Rain = 0
KAI1 120116Z 12007KT 01/M17 A3017 RMK A01 T00091168  RH  025%=      5-min Rain = 0
KAI1 120117Z 12007KT 01/M17 A3017 RMK A01 T00091168  RH  025%=      5-min Rain = 0
KAI1 120118Z 12007KT 01/M17 A3017 RMK A01 T00081169  RH  025%=      5-min Rain = 0
KAI1 120119Z 12007KT 01/M17 A3017 RMK A01 T00071170  RH  025%=      5-min Rain = 0
KAI1 120120Z 12007KT 01/M17 A3017 RMK A01 T00061170  RH  025%=      5-min Rain = 0
KAI1 120121Z 12007KT 01/M17 A3017 RMK A01 T00061170  RH  025%=      5-min Rain = 0
KAI1 120122Z 13007KT 01/M17 A3017 RMK A01 T00051171  RH  025%=      5-min Rain = 0
KAI1 120123Z 12008KT 00/M17 A3017 RMK A01 T00041172  RH  025%=      5-min Rain = 0
KAI1 120124Z 12008KT 00/M17 A3017 RMK A01 T00021174  RH  025%=      5-min Rain = 0
KAI1 120125Z 12008KT 00/18 A3017 RMK A01 T00000-177  RH  025%=      5-min Rain = 0
KAI1 120126Z 12007KT M00/M18 A3017 RMK A01 T10011177  RH  025%=      5-min Rain = 0
KAI1 120127Z 12008KT M00/M18 A3017 RMK A01 T10021177  RH  026%=      5-min Rain = 0
KAI1 120128Z 12008KT M00/M18 A3017 RMK A01 T10031176  RH  026%=      5-min Rain = 0
KAI1 120129Z 12009KT M00/M18 A3017 RMK A01 T10041177  RH  026%=      5-min Rain = 0
KAI1 120130Z 12008KT M01/M18 A3017 RMK A01 T10051178  RH  026%=      5-min Rain = 0
KAI1 120131Z 12008KT M01/M18 A3017 RMK A01 T10071179  RH  026%=      5-min Rain = 0
KAI1 120132Z 12009KT M01/M18 A3017 RMK A01 T10081180  RH  026%=      5-min Rain = 0
KAI1 120133Z 12009KT M01/M18 A3017 RMK A01 T10091179  RH  026%=      5-min Rain = 0
KAI1 120134Z 12008KT M01/M18 A3017 RMK A01 T10091177  RH  027%=      5-min Rain = 0
KAI1 120135Z 12008KT M01/M18 A3018 RMK A01 T10091177  RH  027%=      5-min Rain = 0
KAI1 120136Z 12008KT M01/M18 A3018 RMK A01 T10101177  RH  027%=      5-min Rain = 0
KAI1 120137Z 13008KT M01/M18 A3018 RMK A01 T10101176  RH  027%=      5-min Rain = 0
KAI1 120138Z 13009KT M01/M18 A3018 RMK A01 T10111176  RH  027%=      5-min Rain = 0
KAI1 120139Z 13009KT M01/M17 A3018 RMK A01 T10101174  RH  028%=      5-min Rain = 0
KAI1 120140Z 13009KT M01/M17 A3018 RMK A01 T10101174  RH  028%=      5-min Rain = 0
KAI1 120141Z 13009KT M01/M18 A3018 RMK A01 T10101175  RH  027%=      5-min Rain = 0
KAI1 120142Z 13009KT M01/M18 A3018 RMK A01 T10111175  RH  028%=      5-min Rain = 0
KAI1 120143Z 13008KT M01/M18 A3018 RMK A01 T10121175  RH  028%=      5-min Rain = 0
KAI1 120144Z 13008KT M01/M18 A3018 RMK A01 T10131175  RH  028%=      5-min Rain = 0
KAI1 120145Z 12008KT M01/M17 A3018 RMK A01 T10131174  RH  028%=      5-min Rain = 0
KAI1 120146Z 12008KT M01/M17 A3018 RMK A01 T10141174  RH  028%=      5-min Rain = 0
KAI1 120147Z 13009KT M01/M17 A3018 RMK A01 T10141173  RH  029%=      5-min Rain = 0
KAI1 120148Z 12009KT M01/M17 A3018 RMK A01 T10141172  RH  029%=      5-min Rain = 0
KAI1 120149Z 12008KT M01/M17 A3018 RMK A01 T10141171  RH  029%=      5-min Rain = 0
KAI1 120150Z 12008KT M01/M17 A3018 RMK A01 T10141171  RH  029%=      5-min Rain = 0
KAI1 120151Z 12009KT M01/M17 A3018 RMK A01 T10141171  RH  029%=      5-min Rain = 0
KAI1 120152Z 12009KT M02/M17 A3018 RMK A01 T10151170  RH  030%=      5-min Rain = 0
KAI1 120153Z 12008KT M02/M17 A3018 RMK A01 T10151169  RH  030%=      5-min Rain = 0
KAI1 120154Z 13008KT M02/M17 A3018 RMK A01 T10151168  RH  030%=      5-min Rain = 0
KAI1 120155Z 13008KT M02/M17 A3018 RMK A01 T10151168  RH  030%=      5-min Rain = 0
KAI1 120156Z 13008KT M02/M17 A3018 RMK A01 T10151169  RH  030%=      5-min Rain = 0
KAI1 120157Z 13008KT M02/M17 A3018 RMK A01 T10161169  RH  030%=      5-min Rain = 0
KAI1 120158Z 14008KT M02/M17 A3019 RMK A01 T10161169  RH  030%=      5-min Rain = 0
KAI1 120159Z 13009KT M02/M17 A3019 RMK A01 T10171170  RH  030%=      5-min Rain = 0
KAI1 120200Z 14009KT M02/M17 A3019 RMK A01 T10171170  RH  030%=      5-min Rain = 0
KAI1 120201Z 13009KT M02/M17 A3019 RMK A01 T10181171  RH  030%=      5-min Rain = 0
KAI1 120202Z 13010KT M02/M17 A3019 RMK A01 T10191171  RH  030%=      5-min Rain = 0
KAI1 120203Z 14009KT M02/M17 A3019 RMK A01 T10201171  RH  031%=      5-min Rain = 0
KAI1 120204Z 14009KT M02/M17 A3019 RMK A01 T10201170  RH  031%=      5-min Rain = 0
KAI1 120205Z 13010KT M02/M17 A3019 RMK A01 T10211170  RH  031%=      5-min Rain = 0
KAI1 120206Z 13010KT M02/M17 A3019 RMK A01 T10221170  RH  031%=      5-min Rain = 0
KAI1 120207Z 13009KT M02/M17 A3019 RMK A01 T10221170  RH  031%=      5-min Rain = 0
KAI1 120208Z 13010KT M02/M17 A3019 RMK A01 T10221169  RH  032%=      5-min Rain = 0
KAI1 120209Z 13009KT M02/M17 A3019 RMK A01 T10231169  RH  032%=      5-min Rain = 0
KAI1 120210Z 14009KT M02/M17 A3019 RMK A01 T10231168  RH  032%=      5-min Rain = 0
KAI1 120211Z 14009KT M02/M17 A3019 RMK A01 T10231169  RH  032%=      5-min Rain = 0
KAI1 120212Z 14009KT M02/M17 A3019 RMK A01 T10231168  RH  032%=      5-min Rain = 0
KAI1 120213Z 14008KT M02/M17 A3019 RMK A01 T10231168  RH  032%=      5-min Rain = 0
KAI1 120214Z 14009KT M02/M17 A3019 RMK A01 T10241170  RH  032%=      5-min Rain = 0
KAI1 120215Z 14009KT M02/M17 A3019 RMK A01 T10241170  RH  032%=      5-min Rain = 0
KAI1 120216Z 14009KT M03/M17 A3019 RMK A01 T10251170  RH  032%=      5-min Rain = 0
KAI1 120217Z 14009KT M03/M17 A3019 RMK A01 T10261171  RH  032%=      5-min Rain = 0
KAI1 120218Z 14009KT M03/M17 A3019 RMK A01 T10261171  RH  032%=      5-min Rain = 0
KAI1 120219Z 14009KT M03/M17 A3019 RMK A01 T10271171  RH  032%=      5-min Rain = 0
KAI1 120220Z 14009KT M03/M17 A3019 RMK A01 T10271171  RH  032%=      5-min Rain = 0
KAI1 120221Z 14009KT M03/M17 A3019 RMK A01 T10271170  RH  032%=      5-min Rain = 0
KAI1 120222Z 14009KT M03/M17 A3019 RMK A01 T10281170  RH  033%=      5-min Rain = 0
KAI1 120223Z 13009KT M03/M17 A3019 RMK A01 T10281170  RH  033%=      5-min Rain = 0
KAI1 120224Z 13008KT M03/M17 A3019 RMK A01 T10281169  RH  033%=      5-min Rain = 0
KAI1 120225Z 13008KT M03/M17 A3019 RMK A01 T10281168  RH  033%=      5-min Rain = 0
KAI1 120226Z 13009KT M03/M17 A3019 RMK A01 T10281168  RH  033%=      5-min Rain = 0
KAI1 120227Z 13009KT M03/M17 A3019 RMK A01 T10281168  RH  033%=      5-min Rain = 0
KAI1 120228Z 14009KT M03/M17 A3019 RMK A01 T10281168  RH  033%=      5-min Rain = 0
KAI1 120229Z 14009KT M03/M17 A302 RMK A01 T10281167  RH  033%=      5-min Rain = 0
KAI1 120230Z 13009KT M03/M17 A302 RMK A01 T10281168  RH  033%=      5-min Rain = 0
KAI1 120231Z 14009KT M03/M17 A302 RMK A01 T10281168  RH  033%=      5-min Rain = 0
KAI1 120232Z 14009KT M03/M17 A302 RMK A01 T10281167  RH  033%=      5-min Rain = 0
KAI1 120233Z 14009KT M03/M17 A302 RMK A01 T10291168  RH  033%=      5-min Rain = 0
KAI1 120234Z 14009KT M03/M17 A302 RMK A01 T10291168  RH  033%=      5-min Rain = 0
KAI1 120235Z 14009KT M03/M17 A302 RMK A01 T10301168  RH  034%=      5-min Rain = 0
KAI1 120236Z 14009KT M03/M17 A302 RMK A01 T10301168  RH  034%=      5-min Rain = 0
KAI1 120237Z 14008KT M03/M17 A302 RMK A01 T10311169  RH  034%=      5-min Rain = 0
KAI1 120238Z 14008KT M03/M17 A302 RMK A01 T10311169  RH  034%=      5-min Rain = 0
KAI1 120239Z 14009KT M03/M17 A302 RMK A01 T10321169  RH  034%=      5-min Rain = 0
KAI1 120240Z 14009KT M03/M17 A302 RMK A01 T10331170  RH  034%=      5-min Rain = 0
KAI1 120241Z 14009KT M03/M17 A302 RMK A01 T10331169  RH  034%=      5-min Rain = 0
KAI1 120242Z 15009KT M03/M17 A302 RMK A01 T10331169  RH  034%=      5-min Rain = 0
KAI1 120243Z 14009KT M03/M17 A302 RMK A01 T10331170  RH  034%=      5-min Rain = 0
KAI1 120244Z 14009KT M03/M17 A302 RMK A01 T10331169  RH  034%=      5-min Rain = 0
KAI1 120245Z 14009KT M03/M17 A302 RMK A01 T10321168  RH  034%=      5-min Rain = 0
KAI1 120246Z 14008KT M03/M17 A302 RMK A01 T10321168  RH  034%=      5-min Rain = 0
KAI1 120247Z 14009KT M03/M17 A302 RMK A01 T10311167  RH  034%=      5-min Rain = 0
KAI1 120248Z 15009KT M03/M17 A302 RMK A01 T10301167  RH  034%=      5-min Rain = 0
KAI1 120249Z 15009KT M03/M17 A302 RMK A01 T10301167  RH  034%=      5-min Rain = 0
KAI1 120250Z 14009KT M03/M17 A302 RMK A01 T10301167  RH  034%=      5-min Rain = 0
KAI1 120251Z 15009KT M03/M17 A302 RMK A01 T10301167  RH  034%=      5-min Rain = 0
KAI1 120252Z 14009KT M03/M17 A302 RMK A01 T10301168  RH  034%=      5-min Rain = 0
KAI1 120253Z 15009KT M03/M17 A302 RMK A01 T10311168  RH  034%=      5-min Rain = 0
KAI1 120254Z 14009KT M03/M17 A302 RMK A01 T10311168  RH  034%=      5-min Rain = 0
KAI1 120255Z 14009KT M03/M17 A302 RMK A01 T10301167  RH  034%=      5-min Rain = 0
KAI1 120256Z 14009KT M03/M17 A302 RMK A01 T10301167  RH  034%=      5-min Rain = 0
KAI1 120257Z 14009KT M03/M17 A302 RMK A01 T10311167  RH  034%=      5-min Rain = 0
KAI1 120258Z 14008KT M03/M17 A302 RMK A01 T10301167  RH  034%=      5-min Rain = 0
KAI1 120259Z 15008KT M03/M17 A302 RMK A01 T10311168  RH  034%=      5-min Rain = 0
KAI1 120300Z 15008KT M03/M17 A302 RMK A01 T10311167  RH  034%=      5-min Rain = 0
KAI1 120301Z 15009KT M03/M17 A302 RMK A01 T10311166  RH  034%=      5-min Rain = 0
KAI1 120302Z 15009KT M03/M17 A302 RMK A01 T10311166  RH  034%=      5-min Rain = 0
KAI1 120303Z 15009KT M03/M17 A302 RMK A01 T10311166  RH  034%=      5-min Rain = 0
KAI1 120304Z 15009KT M03/M17 A302 RMK A01 T10311167  RH  034%=      5-min Rain = 0
KAI1 120305Z 15008KT M03/M17 A302 RMK A01 T10311166  RH  035%=      5-min Rain = 0
KAI1 120306Z 15008KT M03/M17 A302 RMK A01 T10321166  RH  035%=      5-min Rain = 0
KAI1 120307Z 15008KT M03/M17 A302 RMK A01 T10321166  RH  035%=      5-min Rain = 0
KAI1 120308Z 15008KT M03/M17 A302 RMK A01 T10311165  RH  035%=      5-min Rain = 0
KAI1 120309Z 14008KT M03/M17 A302 RMK A01 T10311165  RH  035%=      5-min Rain = 0
KAI1 120310Z 14007KT M03/M17 A302 RMK A01 T10311167  RH  034%=      5-min Rain = 0
KAI1 120311Z 14007KT M03/M17 A3021 RMK A01 T10321168  RH  034%=      5-min Rain = 0
KAI1 120312Z 14007KT M03/M17 A3021 RMK A01 T10331169  RH  034%=      5-min Rain = 0
KAI1 120313Z 14007KT M04/M17 A3021 RMK A01 T10351171  RH  034%=      5-min Rain = 0
KAI1 120314Z 15008KT M04/M17 A3021 RMK A01 T10361171  RH  034%=      5-min Rain = 0
KAI1 120315Z 15008KT M04/M17 A3021 RMK A01 T10371171  RH  034%=      5-min Rain = 0
KAI1 120316Z 15008KT M04/M17 A3021 RMK A01 T10381172  RH  035%=      5-min Rain = 0
KAI1 120317Z 15008KT M04/M17 A3021 RMK A01 T10391173  RH  035%=      5-min Rain = 0
KAI1 120318Z 15008KT M04/M17 A3021 RMK A01 T10401173  RH  035%=      5-min Rain = 0
KAI1 120319Z 15008KT M04/M17 A3021 RMK A01 T10411174  RH  035%=      5-min Rain = 0
KAI1 120320Z 15008KT M04/M18 A3021 RMK A01 T10421175  RH  035%=      5-min Rain = 0
KAI1 120321Z 15007KT M04/M18 A3021 RMK A01 T10421175  RH  035%=      5-min Rain = 0
KAI1 120322Z 15007KT M04/M18 A3021 RMK A01 T10431176  RH  035%=      5-min Rain = 0
KAI1 120323Z 15007KT M05/M18 A3021 RMK A01 T10451177  RH  035%=      5-min Rain = 0
KAI1 120324Z 14007KT M05/M18 A3021 RMK A01 T10451177  RH  035%=      5-min Rain = 0
KAI1 120325Z 14007KT M05/M18 A3021 RMK A01 T10461177  RH  035%=      5-min Rain = 0
KAI1 120326Z 14008KT M05/M18 A3021 RMK A01 T10461176  RH  035%=      5-min Rain = 0
KAI1 120327Z 15008KT M05/M18 A3021 RMK A01 T10461176  RH  035%=      5-min Rain = 0
KAI1 120328Z 15008KT M05/M18 A3021 RMK A01 T10461176  RH  036%=      5-min Rain = 0
KAI1 120329Z 15008KT M05/M18 A3021 RMK A01 T10461175  RH  036%=      5-min Rain = 0
KAI1 120330Z 15008KT M05/M17 A3021 RMK A01 T10461174  RH  036%=      5-min Rain = 0
KAI1 120331Z 15008KT M05/M17 A3021 RMK A01 T10461173  RH  036%=      5-min Rain = 0
KAI1 120332Z 15008KT M05/M17 A3021 RMK A01 T10461172  RH  037%=      5-min Rain = 0
KAI1 120333Z 15008KT M05/M17 A3021 RMK A01 T10461172  RH  037%=      5-min Rain = 0
KAI1 120334Z 15008KT M05/M17 A3021 RMK A01 T10451171  RH  037%=      5-min Rain = 0
KAI1 120335Z 15008KT M05/M17 A3021 RMK A01 T10451171  RH  037%=      5-min Rain = 0
KAI1 120336Z 15007KT M05/M17 A3021 RMK A01 T10451171  RH  037%=      5-min Rain = 0
KAI1 120337Z 15007KT M05/M17 A3021 RMK A01 T10451172  RH  036%=      5-min Rain = 0
KAI1 120338Z 15007KT M05/M17 A3021 RMK A01 T10451174  RH  036%=      5-min Rain = 0
KAI1 120339Z 15007KT M05/M17 A3021 RMK A01 T10451174  RH  036%=      5-min Rain = 0
KAI1 120340Z 15007KT M05/M17 A3021 RMK A01 T10451174  RH  036%=      5-min Rain = 0
KAI1 120341Z 15008KT M05/M17 A3021 RMK A01 T10461174  RH  036%=      5-min Rain = 0
KAI1 120342Z 15008KT M05/M17 A3021 RMK A01 T10451173  RH  036%=      5-min Rain = 0
KAI1 120343Z 15008KT M05/M17 A3021 RMK A01 T10461173  RH  036%=      5-min Rain = 0
KAI1 120344Z 15008KT M05/M17 A3021 RMK A01 T10461173  RH  036%=      5-min Rain = 0
KAI1 120345Z 15008KT M05/M17 A3021 RMK A01 T10471173  RH  036%=      5-min Rain = 0
KAI1 120346Z 16008KT M05/M17 A3021 RMK A01 T10471174  RH  036%=      5-min Rain = 0
KAI1 120347Z 15008KT M05/M18 A3021 RMK A01 T10481176  RH  036%=      5-min Rain = 0
KAI1 120348Z 15008KT M05/M18 A3021 RMK A01 T10491177  RH  036%=      5-min Rain = 0
KAI1 120349Z 15008KT M05/M18 A3022 RMK A01 T10501177  RH  036%=      5-min Rain = 0
KAI1 120350Z 15007KT M05/M18 A3022 RMK A01 T10511178  RH  036%=      5-min Rain = 0
KAI1 120351Z 15007KT M05/M18 A3022 RMK A01 T10511178  RH  036%=      5-min Rain = 0
KAI1 120352Z 15007KT M05/M18 A3022 RMK A01 T10511178  RH  036%=      5-min Rain = 0
KAI1 120353Z 15007KT M05/M18 A3022 RMK A01 T10511178  RH  036%=      5-min Rain = 0
KAI1 120354Z 15007KT M05/M18 A3022 RMK A01 T10521178  RH  036%=      5-min Rain = 0
KAI1 120355Z 15008KT M05/M18 A3022 RMK A01 T10521178  RH  036%=      5-min Rain = 0
KAI1 120356Z 16008KT M05/M18 A3022 RMK A01 T10531179  RH  036%=      5-min Rain = 0
KAI1 120357Z 16008KT M05/M18 A3022 RMK A01 T10541181  RH  036%=      5-min Rain = 0
KAI1 120358Z 16007KT M06/M18 A3022 RMK A01 T10551181  RH  036%=      5-min Rain = 0
KAI1 120359Z 16007KT M06/M18 A3022 RMK A01 T10551180  RH  037%=      5-min Rain = 0
KAI1 120400Z 16007KT M06/M18 A3022 RMK A01 T10561178  RH  037%=      5-min Rain = 0
KAI1 120401Z 16007KT M06/M18 A3022 RMK A01 T10551175  RH  038%=      5-min Rain = 0
KAI1 120402Z 16007KT M05/M17 A3022 RMK A01 T10541173  RH  039%=      5-min Rain = 0
KAI1 120403Z 16007KT M05/M17 A3021 RMK A01 T10531171  RH  039%=      5-min Rain = 0
KAI1 120404Z 16007KT M05/M17 A3021 RMK A01 T10531172  RH  039%=      5-min Rain = 0
KAI1 120405Z 16007KT M05/M17 A3021 RMK A01 T10541173  RH  039%=      5-min Rain = 0
KAI1 120406Z 16007KT M05/M17 A3021 RMK A01 T10541173  RH  039%=      5-min Rain = 0
KAI1 120407Z 16008KT M06/M17 A3022 RMK A01 T10551174  RH  039%=      5-min Rain = 0
KAI1 120408Z 16009KT M06/M18 A3022 RMK A01 T10561175  RH  038%=      5-min Rain = 0
KAI1 120409Z 16009KT M06/M18 A3022 RMK A01 T10571179  RH  038%=      5-min Rain = 0
KAI1 120410Z 16008KT M06/M18 A3022 RMK A01 T10591183  RH  037%=      5-min Rain = 0
KAI1 120411Z 16008KT M06/M19 A3022 RMK A01 T10611187  RH  036%=      5-min Rain = 0
KAI1 120412Z 16008KT M06/M19 A3022 RMK A01 T10631187  RH  037%=      5-min Rain = 0
KAI1 120413Z 16007KT M06/M18 A3021 RMK A01 T10631184  RH  038%=      5-min Rain = 0
KAI1 120414Z 15007KT M06/M18 A3021 RMK A01 T10621181  RH  038%=      5-min Rain = 0
KAI1 120415Z 16007KT M06/M18 A3022 RMK A01 T10621180  RH  039%=      5-min Rain = 0
KAI1 120416Z 16008KT M06/M18 A3022 RMK A01 T10611178  RH  039%=      5-min Rain = 0
KAI1 120417Z 16008KT M06/M18 A3022 RMK A01 T10601177  RH  039%=      5-min Rain = 0
KAI1 120418Z 16008KT M06/M18 A3022 RMK A01 T10601179  RH  038%=      5-min Rain = 0
KAI1 120419Z 16008KT M06/M18 A3022 RMK A01 T10601180  RH  038%=      5-min Rain = 0
KAI1 120420Z 16008KT M06/M18 A3022 RMK A01 T10611182  RH  038%=      5-min Rain = 0
KAI1 120421Z 17008KT M06/M18 A3022 RMK A01 T10631183  RH  038%=      5-min Rain = 0
KAI1 120422Z 17008KT M06/M18 A3022 RMK A01 T10641181  RH  039%=      5-min Rain = 0
KAI1 120423Z 17008KT M06/M18 A3022 RMK A01 T10641177  RH  040%=      5-min Rain = 0
KAI1 120424Z 17009KT M06/M17 A3022 RMK A01 T10621172  RH  041%=      5-min Rain = 0
KAI1 120425Z 17009KT M06/M17 A3022 RMK A01 T10611169  RH  042%=      5-min Rain = 0
KAI1 120426Z 17009KT M06/M17 A3022 RMK A01 T10591167  RH  042%=      5-min Rain = 0
KAI1 120427Z 17009KT M06/M17 A3022 RMK A01 T10581165  RH  042%=      5-min Rain = 0
KAI1 120428Z 17009KT M06/M17 A3022 RMK A01 T10571165  RH  042%=      5-min Rain = 0
KAI1 120429Z 17008KT M06/M17 A3022 RMK A01 T10571166  RH  042%=      5-min Rain = 0
KAI1 120430Z 17008KT M06/M17 A3022 RMK A01 T10571167  RH  042%=      5-min Rain = 0
KAI1 120431Z 17008KT M06/M17 A3022 RMK A01 T10571167  RH  041%=      5-min Rain = 0
KAI1 120432Z 17008KT M06/M17 A3022 RMK A01 T10561167  RH  041%=      5-min Rain = 0
KAI1 120433Z 17008KT M06/M17 A3022 RMK A01 T10571167  RH  041%=      5-min Rain = 0
KAI1 120434Z 17009KT M06/M17 A3022 RMK A01 T10561166  RH  042%=      5-min Rain = 0
KAI1 120435Z 17009KT M06/M17 A3022 RMK A01 T10561166  RH  042%=      5-min Rain = 0
KAI1 120436Z 17009KT M06/M17 A3022 RMK A01 T10551165  RH  042%=      5-min Rain = 0
KAI1 120437Z 17009KT M05/M17 A3022 RMK A01 T10541165  RH  042%=      5-min Rain = 0
KAI1 120438Z 17009KT M05/M17 A3022 RMK A01 T10541165  RH  041%=      5-min Rain = 0
KAI1 120439Z 17009KT M05/M17 A3022 RMK A01 T10541166  RH  041%=      5-min Rain = 0
KAI1 120440Z 17010KT M05/M17 A3022 RMK A01 T10541166  RH  041%=      5-min Rain = 0
KAI1 120441Z 17010KT M05/M17 A3022 RMK A01 T10531166  RH  041%=      5-min Rain = 0
KAI1 120442Z 17009KT M05/M17 A3022 RMK A01 T10531166  RH  041%=      5-min Rain = 0
KAI1 120443Z 17009KT M05/M17 A3022 RMK A01 T10521165  RH  041%=      5-min Rain = 0
KAI1 120444Z 18009KT M05/M17 A3022 RMK A01 T10531165  RH  041%=      5-min Rain = 0
KAI1 120445Z 17009KT M05/M17 A3022 RMK A01 T10531165  RH  041%=      5-min Rain = 0
KAI1 120446Z 18009KT M05/M17 A3022 RMK A01 T10531165  RH  041%=      5-min Rain = 0
KAI1 120447Z 18009KT M05/M17 A3022 RMK A01 T10531165  RH  041%=      5-min Rain = 0
KAI1 120448Z 18009KT M05/M17 A3022 RMK A01 T10531165  RH  041%=      5-min Rain = 0
KAI1 120449Z 18008KT M05/M16 A3022 RMK A01 T10531164  RH  041%=      5-min Rain = 0
KAI1 120450Z 18008KT M05/M17 A3022 RMK A01 T10531165  RH  041%=      5-min Rain = 0
KAI1 120451Z 18008KT M05/M16 A3022 RMK A01 T10531164  RH  041%=      5-min Rain = 0
KAI1 120452Z 18008KT M05/M16 A3022 RMK A01 T10531164  RH  041%=      5-min Rain = 0
KAI1 120453Z 18007KT M05/M16 A3022 RMK A01 T10531164  RH  041%=      5-min Rain = 0
KAI1 120454Z 18008KT M05/M17 A3022 RMK A01 T10541165  RH  041%=      5-min Rain = 0
KAI1 120455Z 18007KT M05/M17 A3022 RMK A01 T10541165  RH  041%=      5-min Rain = 0
KAI1 120456Z 17007KT M06/M17 A3022 RMK A01 T10551165  RH  042%=      5-min Rain = 0
KAI1 120457Z 17007KT M06/M17 A3022 RMK A01 T10561165  RH  042%=      5-min Rain = 0
KAI1 120458Z 17007KT M06/M17 A3022 RMK A01 T10561166  RH  042%=      5-min Rain = 0
KAI1 120459Z 17008KT M06/M17 A3022 RMK A01 T10571167  RH  042%=      5-min Rain = 0
KAI1 120500Z 17008KT M06/M17 A3022 RMK A01 T10581168  RH  042%=      5-min Rain = 0
KAI1 120501Z 17007KT M06/M17 A3022 RMK A01 T10591169  RH  041%=      5-min Rain = 0
KAI1 120502Z 17007KT M06/M17 A3022 RMK A01 T10591170  RH  041%=      5-min Rain = 0
KAI1 120503Z 17007KT M06/M17 A3022 RMK A01 T10601170  RH  041%=      5-min Rain = 0
KAI1 120504Z 17007KT M06/M17 A3022 RMK A01 T10611170  RH  042%=      5-min Rain = 0
KAI1 120505Z 17007KT M06/M17 A3022 RMK A01 T10611170  RH  042%=      5-min Rain = 0
KAI1 120506Z 17008KT M06/M17 A3022 RMK A01 T10621171  RH  042%=      5-min Rain = 0
KAI1 120507Z 18008KT M06/M17 A3022 RMK A01 T10631170  RH  042%=      5-min Rain = 0
KAI1 120508Z 18008KT M06/M17 A3022 RMK A01 T10631169  RH  043%=      5-min Rain = 0
KAI1 120509Z 18008KT M06/M17 A3022 RMK A01 T10631169  RH  043%=      5-min Rain = 0
KAI1 120510Z 18008KT M06/M17 A3022 RMK A01 T10631168  RH  043%=      5-min Rain = 0
KAI1 120511Z 18008KT M06/M17 A3022 RMK A01 T10621167  RH  043%=      5-min Rain = 0
KAI1 120512Z 18008KT M06/M17 A3022 RMK A01 T10621167  RH  043%=      5-min Rain = 0
KAI1 120513Z 18008KT M06/M17 A3022 RMK A01 T10621167  RH  043%=      5-min Rain = 0
KAI1 120514Z 18008KT M06/M17 A3022 RMK A01 T10621167  RH  043%=      5-min Rain = 0
KAI1 120515Z 18008KT M06/M17 A3022 RMK A01 T10631169  RH  043%=      5-min Rain = 0
KAI1 120516Z 17008KT M06/M17 A3022 RMK A01 T10641168  RH  043%=      5-min Rain = 0
KAI1 120517Z 17008KT M06/M17 A3022 RMK A01 T10641169  RH  043%=      5-min Rain = 0
KAI1 120518Z 17008KT M07/M17 A3022 RMK A01 T10651169  RH  043%=      5-min Rain = 0
KAI1 120519Z 17008KT M07/M17 A3022 RMK A01 T10651170  RH  043%=      5-min Rain = 0
KAI1 120520Z 17008KT M07/M17 A3022 RMK A01 T10661170  RH  043%=      5-min Rain = 0
KAI1 120521Z 16008KT M07/M17 A3022 RMK A01 T10661171  RH  043%=      5-min Rain = 0
KAI1 120522Z 17008KT M07/M17 A3022 RMK A01 T10661171  RH  043%=      5-min Rain = 0
KAI1 120523Z 17008KT M07/M17 A3022 RMK A01 T10661170  RH  043%=      5-min Rain = 0
KAI1 120524Z 17008KT M07/M17 A3022 RMK A01 T10661170  RH  044%=      5-min Rain = 0
KAI1 120525Z 17008KT M07/M17 A3022 RMK A01 T10661169  RH  044%=      5-min Rain = 0
KAI1 120526Z 17008KT M07/M17 A3022 RMK A01 T10651168  RH  044%=      5-min Rain = 0
KAI1 120527Z 18008KT M06/M17 A3022 RMK A01 T10641167  RH  044%=      5-min Rain = 0
KAI1 120528Z 18008KT M06/M17 A3022 RMK A01 T10641166  RH  044%=      5-min Rain = 0
KAI1 120529Z 18008KT M06/M17 A3022 RMK A01 T10631166  RH  044%=      5-min Rain = 0
KAI1 120530Z 18008KT M06/M17 A3023 RMK A01 T10621165  RH  044%=      5-min Rain = 0
KAI1 120531Z 18007KT M06/M16 A3023 RMK A01 T10621164  RH  044%=      5-min Rain = 0
KAI1 120532Z 17008KT M06/M16 A3023 RMK A01 T10621164  RH  044%=      5-min Rain = 0
KAI1 120533Z 17008KT M06/M17 A3023 RMK A01 T10621165  RH  044%=      5-min Rain = 0
KAI1 120534Z 17008KT M06/M17 A3023 RMK A01 T10621166  RH  043%=      5-min Rain = 0
KAI1 120535Z 17008KT M06/M17 A3023 RMK A01 T10631169  RH  043%=      5-min Rain = 0
KAI1 120536Z 17008KT M06/M17 A3023 RMK A01 T10641170  RH  043%=      5-min Rain = 0
KAI1 120537Z 17008KT M07/M17 A3023 RMK A01 T10651170  RH  043%=      5-min Rain = 0
KAI1 120538Z 17008KT M07/M17 A3023 RMK A01 T10661170  RH  044%=      5-min Rain = 0
KAI1 120539Z 17007KT M07/M17 A3023 RMK A01 T10661169  RH  044%=      5-min Rain = 0
KAI1 120540Z 17007KT M07/M17 A3023 RMK A01 T10661168  RH  044%=      5-min Rain = 0
KAI1 120541Z 17007KT M07/M17 A3023 RMK A01 T10661168  RH  044%=      5-min Rain = 0
KAI1 120542Z 17007KT M07/M17 A3023 RMK A01 T10661168  RH  044%=      5-min Rain = 0
KAI1 120543Z 17007KT M07/M17 A3023 RMK A01 T10671169  RH  044%=      5-min Rain = 0
KAI1 120544Z 18007KT M07/M17 A3023 RMK A01 T10671169  RH  044%=      5-min Rain = 0
KAI1 120545Z 18007KT M07/M17 A3023 RMK A01 T10681168  RH  045%=      5-min Rain = 0
KAI1 120546Z 18007KT M07/M17 A3023 RMK A01 T10681168  RH  045%=      5-min Rain = 0
KAI1 120547Z 19007KT M07/M17 A3023 RMK A01 T10671167  RH  045%=      5-min Rain = 0
KAI1 120548Z 18007KT M07/M17 A3023 RMK A01 T10661166  RH  045%=      5-min Rain = 0
KAI1 120549Z 19007KT M07/M16 A3023 RMK A01 T10661164  RH  045%=      5-min Rain = 0
KAI1 120550Z 19007KT M07/M17 A3023 RMK A01 T10671167  RH  045%=      5-min Rain = 0
KAI1 120551Z 19006KT M07/M17 A3023 RMK A01 T10701170  RH  045%=      5-min Rain = 0
KAI1 120552Z 19006KT M07/M17 A3023 RMK A01 T10721171  RH  045%=      5-min Rain = 0
KAI1 120553Z 19006KT M07/M17 A3023 RMK A01 T10731172  RH  045%=      5-min Rain = 0
KAI1 120554Z 19006KT M07/M17 A3023 RMK A01 T10731172  RH  045%=      5-min Rain = 0
KAI1 120555Z 19006KT M07/M17 A3023 RMK A01 T10741172  RH  045%=      5-min Rain = 0
KAI1 120556Z 18006KT M08/M17 A3023 RMK A01 T10751172  RH  046%=      5-min Rain = 0
KAI1 120557Z 18006KT M08/M17 A3023 RMK A01 T10751171  RH  046%=      5-min Rain = 0
KAI1 120558Z 18006KT M08/M17 A3023 RMK A01 T10751171  RH  046%=      5-min Rain = 0
KAI1 120559Z 18006KT M08/M17 A3023 RMK A01 T10751170  RH  046%=      5-min Rain = 0

Page generated in 0.1224 seconds.